     2              OBSERVATION DATA    G (GPS)             RINEX VERSION / TYPE
ASRINEXO V2.9.7 UX USGS/MENLO_PARK 04-OCT-99 09:38          PGM / RUN BY / DATE
                                                            COMMENT
National Earthquake Hazard Reduction Program                COMMENT
Crustal Strain Project                                      COMMENT
345 Middlefield Road, MS/977                                COMMENT
U.S. Geological Survey, Menlo Park, California 94025        COMMENT
Contact: kwendt@isdmnl.wr.usgs.gov (Ph: 650-329-4866)       COMMENT
HI's are vertical to base of antenna                        COMMENT
BIT 2 OF LLI (+4) FLAGS DATA COLLECTED UNDER "AS" CONDITION COMMENT
pamt                                                        MARKER NAME
WRT                                                         OBSERVER / AGENCY
175 ASHTECH Z-XII3 CD00                                     REC # / TYPE / VERS
CR16364 ASH700936E_C NONE                                   ANT # / TYPE
 -2425745.0000 -4050960.0000  4275691.0000                  APPROX POSITION XYZ
        1.1721        0.0000        0.0000                  ANTENNA: DELTA H/E/N
     1     1                                                WAVELENGTH FACT L1/2
     5    C1    L1    L2    P1    P2                        # / TYPES OF OBSERV
    30                                                      INTERVAL
  1999     9    14    16     6   30.000000                  TIME OF FIRST OBS
                                                            END OF HEADER
 99  9 14 16  6 30.0000000  0  7 17 29 26 23 22 21 03
  20816291.859      148632.606 9    110386.47847  20816290.842    20816297.3884
  23770366.536     -429641.241 7   -315295.21445  23770367.467    23770375.6664
  23211938.964      344795.111 8    255613.78046  23211939.069    23211945.8994
  20712071.175       11276.09447                  20712070.662    20712076.7284
  24992391.372      344766.503 7    255429.54245  24992389.739    24992398.4234
  21892896.511                                    21892898.352    21892903.5014
  21931138.632     -220838.658 8   -163421.13847  21931138.859    21931144.7454
 99  9 14 16  7  0.0000000  0  8 17 29 26 23 22 21 06 03
  20740160.391     -251440.341 9   -201358.71447  20740159.536    20740166.0794
  23667288.665     -971319.834 7   -737382.23945  23667289.447    23667297.6804
  23144979.657       -7080.117 8    -18574.74846  23144979.644    23144986.2144
  20632303.439     -347526.93819   -315359.63647  20632302.884    20632309.0124
  24925267.701       -7970.100 7    -19430.30245  24925267.276    24925275.3124
  21799362.416                                    21799364.244    21799448.1794
  24359241.311                                    24359238.140    24359252.5764
  21837813.901     -711264.412 8   -545571.07647  21837813.966    21837819.8504
 99  9 14 16  7 30.0000000  0  8 17 29 26 23 22 21 06 03
  20746604.702     -217575.125 9   -174970.29647  20746603.925    20746610.4534
  23646746.033    -1079272.958 7   -821501.38045  23646746.429    23646754.8294
  23160610.973       75064.112 8     45433.71946  23160611.043    23160617.7394
  20635107.608     -332790.995 9   -303877.09447  20635107.142    20635113.2204
  24940675.027       72997.091 7     43660.88745  24940673.251    24940682.8874
  21788396.507                                    21788398.406    21788624.9854
  24381068.718        5960.871 7    -23145.42654  24381068.937    24381077.8094
  21827096.364     -767586.267 8   -589458.26047  21827096.236    21827102.1074
 99  9 14 16  8  0.0000000  0  8 17 29 26 23 22 21 06 03
  20753106.351     -183408.695 9   -148347.14447  20753105.614    20753112.1514
  23626225.405    -1187109.185 7   -905529.41445  23626225.665    23626234.1624
  23176319.074      157610.826 8    109755.77946  23176319.188    23176325.9694
  20637972.070     -317738.269 9   -292147.71447  20637971.609    20637977.6614
  24956099.061      154050.418 7    106819.17845  24956098.052    24956107.1024
  21777482.474     -377156.89356                  21777481.853    21777488.4624
  24402904.620      120712.416 7     66271.20145  24402906.329    24402916.1894
  21816469.977     -823428.424 8   -632971.63147  21816469.812    21816475.6474
 99  9 14 16  8 30.0000000  0  7 17 29 26 23 21 06 03
  20759666.086     -148937.112 9   -121486.18747  20759665.383    20759671.9074
  23605731.094    -1294806.191 7   -989448.99345  23605731.463    23605740.0294
  23192104.115      240561.162 8    174392.32646  23192104.141    23192110.9124
  20640901.107     -302346.487 9   -280154.15047  20640900.612    20640906.6374
  21766622.507     -888152.80618   -421626.32947  21766622.161    21766628.7194
  24424753.469      235526.943 7    155736.87445  24424754.974    24424763.8814
  21805934.794     -878791.412 8   -676111.61047  21805934.556    21805940.4144
 99  9 14 16  9  0.0000000  0  7 17 29 26 23 21 06 03
  20766291.174     -114122.249 9    -94357.76547  20766290.496    20766297.0554
  23585270.353    -1402326.816 7  -1073231.11245  23585270.847    23585279.3994
  23207972.286      323949.348 8    239370.07146  23207972.414    23207979.1834
  20643900.186     -286586.353 9   -267873.54748  20643899.685    20643905.7014
  21755825.089     -944894.015 9   -465840.25747  21755824.746    21755831.2354
  24446621.080      350439.355 7    245278.86645  24446622.016    24446630.8024
  21795496.813     -933642.929 8   -718853.05647  21795496.612    21795502.6184
 99  9 14 16  9 30.0000000  0  7 17 29 26 23 21 06 03
  20772976.643      -78989.880 9    -66981.93147  20772975.998    20772982.6064
  23564837.034    -1509704.528 8  -1156901.89945  23564837.352    23564845.9154
  23223918.413      407745.808 8    304665.97546  23223918.466    23223925.2524
  20646962.622     -270493.224 9   -255333.46248  20646962.125    20646968.1694
  21745080.612    -1001356.966 9   -509837.35347  21745080.194    21745086.7424
  24468501.509      465421.117 7    334874.88345  24468502.118    24468511.6854
  21785148.789     -988022.429 8   -761226.70147  21785148.536    21785154.6004
 99  9 14 16 10  0.0000000  0  7 17 29 26 23 21 06 03
  20779722.607      -43539.613 9    -39358.38447  20779722.008    20779728.6654
  23544427.213    -1616959.367 8  -1240476.95645  23544427.412    23544435.8924
  23239940.290      491941.375 8    370272.85846  23239940.275    23239947.2304
  20650090.326     -254057.210 9   -242526.19748  20650089.840    20650095.8914
  21734389.172    -1057540.836 9   -553616.98047  21734388.756    21734395.3254
  24490398.867      580490.884 7    424539.47745  24490399.159    24490409.1154
  21774892.580    -1041919.230 8   -803224.21647  21774892.316    21774898.4374
 99  9 14 16 10 30.0000000  0  7 17 29 26 23 21 06 03
  20786531.122       -7760.812 9    -11478.84247  20786530.554    20786537.2254
  23524037.656    -1724107.261 8  -1323968.68345  23524037.808    23524046.1924
  23256039.507      576543.486 8    436196.53646  23256039.529    23256046.5694
  20653281.060     -237289.739 9   -229460.65648  20653280.591    20653286.6784
  21723750.894    -1113445.413 9   -597178.98147  21723750.460    21723757.0584
  24512314.974      695659.664 7    514281.20445  24512315.018    24512325.4364
  21764732.093    -1095312.860 8   -844829.65047  21764731.860    21764738.0514
 99  9 14 16 11  0.0000000  0  6 17 29 26 23 21 03
  20793390.077       28282.925 9     16607.14647  20793389.526    20793396.1884
  23503654.256    -1831222.159 8  -1407434.68645  23503654.319    23503662.8984
  23272205.416      661495.489 8    502392.83846  23272205.437    23272212.5014
  20656521.927     -220259.239 9   -216190.15748  20656521.438    20656527.5284
  21713150.089    -1169153.067 9   -640587.54447  21713149.669    21713156.2764
  21754658.540    -1148250.420 8   -886079.70647  21754658.253    21754664.4454
 99  9 14 16 11 30.0000000  0  6 17 29 26 23 21 03
  20800311.146       64653.056 9     44947.46547  20800310.604    20800317.2574
  23483289.367    -1938240.604 8  -1490825.53145  23483289.327    23483298.0084
  23288448.068      746850.615 8    568903.27646  23288448.033    23288455.0544
  20659826.400     -202894.305 9   -202659.06248  20659825.890    20659832.0344
  21702597.260    -1224608.188 9   -683799.31847  21702596.825    21702603.5264
  21744686.438    -1200654.624 8   -926914.15247  21744686.077    21744692.3454
 99  9 14 16 12  0.0000000  0  6 17 29 26 23 21 03
  20807295.524      101355.566 9     73546.78347  20807294.929    20807301.5564
  23462944.861    -2045151.225 8  -1574132.39645  23462944.791    23462953.4734
  23304767.626      832610.532 8    635729.13045  23304767.615    23304774.7264
  20663195.962     -185187.063 9   -188861.22948  20663195.497    20663201.6384
  21692095.712    -1279794.365 8   -726801.53247  21692095.295    21692101.9724
  21734819.992    -1252502.984 8   -967315.48047  21734819.727    21734826.0154
 99  9 14 16 12 30.0000000  0  6 17 29 26 23 21 03
  20814342.571      138387.748 9    102402.98247  20814341.991    20814348.5834
  23442624.599    -2151935.624 7  -1657340.90845  23442624.379    23442632.8044
  23321162.037      918764.269 8    702861.85045  23321162.075    23321169.3034
  20666628.292     -167150.479 9   -174806.77448  20666627.831    20666633.9354
  21681644.456    -1334716.423 8   -769597.93647  21681644.020    21681650.6934
  21725056.462    -1303810.846 8  -1007295.64047  21725056.197    21725062.4734
 99  9 14 16 13  0.0000000  0  7 17 29 26 23 21 03 31
  20821448.462      175728.987 9    131500.00647  20821447.871    20821454.4664
  23422329.026    -2258589.749 8  -1740447.91245  23422328.819    23422337.0354
  23337624.739     1005275.593 8    770273.21845  23337624.719    23337632.0174
  20670121.262     -148794.916 9   -160503.75948  20670120.793    20670126.9494
  21671244.204    -1389370.018 9   -812185.15047  21671243.800    21671250.4664
  21715390.882    -1354604.004 8  -1046874.73347  21715390.578    21715396.8444
  24485378.485    -1269893.238 7   -964748.97645  24485378.306    24485384.5564
 99  9 14 16 13 30.0000000  0  7 17 29 26 23 21 03 31
  20828612.750      213377.009 9    160836.08847  20828612.122    20828618.6884
  23402058.198    -2365112.888 8  -1823452.85945  23402058.082    23402066.2664
  23354149.981     1092116.466 8    837941.37345  23354149.958    23354157.3174
  20673672.259     -130134.488 9   -145963.18548  20673671.795    20673677.9564
  21660896.674    -1443746.905 9   -854556.74047  21660896.254    21660902.8744
  21705818.509    -1404907.135 8  -1086071.97447  21705818.235    21705824.4944
  24466526.289    -1368961.427 7  -1041944.96445  24466526.186    24466532.6564
 99  9 14 16 14  0.0000000  0  7 17 29 26 23 21 03 31
  20835846.208      251388.981 9    190455.76047  20835845.614    20835852.2334
  23381823.945    -2471443.592 8  -1906307.82945  23381823.930    23381832.1834
  23370751.619     1179358.046 8    905921.77645  23370751.585    23370758.8434
  20677290.657     -111120.061 9   -131146.76448  20677290.190    20677296.3404
  21650613.048    -1497787.994 9   -896666.68147  21650612.613    21650619.1714
  21696348.002    -1454675.151 8  -1124852.25747  21696347.691    21696353.9524
  24447725.679    -1467759.151 7  -1118930.16245  24447725.481    24447732.0444
 99  9 14 16 14 30.0000000  0  7 17 29 26 23 21 03 31
  20843148.618      289763.365 9    220357.83947  20843148.059    20843154.6894
  23361624.661    -2577591.442 8  -1989020.36045  23361624.654    23361632.7414
  23387426.235     1266983.349 8    974201.16945  23387426.232    23387433.4404
  20680971.835      -91775.856 9   -116073.37948  20680971.341    20680977.4734
  21640388.993    -1551515.846 9   -938532.53247  21640388.531    21640395.1534
  21686975.117    -1503930.042 8  -1163232.69847  21686974.880    21686981.0864
  24428973.287    -1566304.223 7  -1195718.52445  24428973.074    24428979.7124
 99  9 14 16 15  0.0000000  0  7 17 29 26 23 21 03 31
  20850519.389      328496.662 9    250539.58647  20850518.836    20850525.4704
  23341457.560    -2683569.947 8  -2071600.90445  23341457.635    23341465.6724
  23404171.736     1354981.140 8   1042770.80645  23404171.669    23404178.9914
  20684714.006      -72110.632 9   -100749.84548  20684713.521    20684719.6604
  21630220.769    -1604950.606 9   -980170.00247  21630220.270    21630226.8864
  21677697.507    -1552684.481 8  -1201223.17947  21677697.262    21677703.4254
  24410267.446    -1664604.401 7  -1272316.04845  24410267.134    24410274.1094
 99  9 14 16 15 30.0000000  0  7 17 29 26 23 21 03 31
  20857957.034      367581.081 9    280994.93247  20857956.447    20857963.0514
  23321321.016    -2789388.280 7  -2154056.63945  23321320.916    23321328.9834
  23420989.769     1443360.802 8   1111638.02245  23420989.846    23420997.1664
  20688516.224      -52129.995 9    -85180.53748  20688515.748    20688521.8484
  21620104.033    -1658114.613 9  -1021596.49847  21620103.514    21620110.1324
  21668516.746    -1600930.130 8  -1238817.19147  21668516.448    21668522.5814
  24391607.957    -1762660.440 7  -1348723.34045  24391607.562    24391614.8134
 99  9 14 16 16  0.0000000  0  7 17 29 26 23 21 03 31
  20865458.143      406999.306 9    311710.39447  20865457.514    20865464.1084
  23301214.120    -2895050.581 8  -2236390.79745  23301213.965    23301222.0624
  23437880.327     1532121.096 8   1180801.84245  23437880.483    23437887.6404
  20692377.274      -31840.498 9    -69370.56148  20692376.766    20692382.8544
  21610036.435    -1711020.103 9  -1062821.55047  21610035.973    21610042.5604
  21659433.321    -1648664.202 8  -1276012.57647  21659433.036    21659439.1034
  24372994.938    -1860473.412 7  -1424941.21645  24372994.297    24373001.7794
 99  9 14 16 16 30.0000000  0  7 17 29 26 23 21 03 31
  20873022.588      446750.647 9    342685.42247  20873021.968    20873028.6224
  23281136.694    -3000559.775 8  -2318605.67945  23281136.434    23281144.2774
  23454838.949     1621237.665 8   1250243.24745  23454838.903    23454846.0034
  20696297.193      -11241.454 9    -53319.38048  20696296.652    20696302.7594
  21600016.458    -1763675.701 9  -1103851.87447  21600015.950    21600022.5444
  21650447.455    -1695885.390 8  -1312808.31247  21650447.147    21650453.2384
  24354430.105    -1958031.458 7  -1500960.45845  24354429.708    24354437.1224
 99  9 14 16 17  0.0000000  0  7 17 29 26 23 21 03 31
  20880649.636      486830.970 9    373916.80347  20880649.008    20880655.7194
  23261085.852    -3105927.787 8  -2400710.51445  23261085.516    23261093.3444
  23471866.285     1710717.641 8   1319967.86245  23471866.365    23471873.5404
  20700276.292        9668.978 9    -37025.55848  20700275.757    20700281.8824
  21590044.615    -1816077.918 9  -1144684.77047  21590044.173    21590050.7564
  21641561.229    -1742582.742 8  -1349195.86647  21641560.989    21641567.0574
  24335916.039    -2055323.008 7  -1576772.07045  24335915.716    24335922.9654
 99  9 14 16 17 30.0000000  0  7 17 29 26 23 21 03 31
  20888340.141      527245.201 9    405408.36847  20888339.514    20888346.3434
  23241061.253    -3211156.092 8  -2482706.52945  23241061.178    23241068.8544
  23488964.239     1800566.643 8   1389980.01145  23488964.198    23488971.3254
  20704312.484       30879.203 9    -20498.13348  20704311.963    20704318.0544
  21580121.563    -1868223.907 9  -1185318.00847  21580121.133    21580127.7314
  21632777.340    -1788742.748 8  -1385164.69847  21632777.040    21632783.1164
  24317452.068    -2152352.431 7  -1652379.41445  24317451.659    24317458.6454
 99  9 14 16 18  0.0000000  0  7 17 29 26 23 21 03 31
  20896096.890      568006.860 9    437170.65947  20896096.264    20896103.1044
  23221063.577    -3316244.661 8  -2564593.64045  23221063.422    23221071.1194
  23506129.055     1890768.347 8   1460267.01245  23506129.096    23506136.1974
  20708404.647       52383.295 9     -3741.71948  20708404.090    20708410.1704
  21570246.779    -1920116.459 9  -1225753.75547  21570246.309    21570252.8774
  21624093.216    -1834377.977 8  -1420724.62147  21624092.902    21624099.0044
  24299036.819    -2249125.895 7  -1727787.30045  24299036.377    24299043.0734
 99  9 14 16 18 30.0000000  0  7 17 29 26 23 21 03 31
  20903922.701      609131.583 9    469215.85647  20903922.086    20903928.9474
  23201092.107    -3421195.712 8  -2646373.60145  23201091.899    23201099.4364
  23523360.110     1981317.307 8   1530824.58645  23523360.026    23523367.2074
  20712552.918       74182.133 9     13244.36448  20712552.338    20712558.4254
  21560420.167    -1971756.092 9  -1265992.42447  21560419.662    21560426.2094
  21615511.856    -1879472.867 8  -1455863.50247  21615511.623    21615517.7594
  24280669.794    -2345645.214 7  -1802997.14745  24280669.283    24280676.0054
 99  9 14 16 19  0.0000000  0  7 17 29 26 23 21 03 31
  20911816.344      650612.809 9    501538.85347  20911815.761    20911822.6524
  23181148.017    -3526002.553 8  -2728041.19545  23181147.814    23181155.1974
  23540657.950     2072218.537 8   1601656.66745  23540658.011    23540665.2684
  20716756.756       96273.564 9     30458.44848  20716756.208    20716762.3494
  21550644.154    -2023129.199 9  -1306023.40747  21550643.660    21550650.2354
  21607034.087    -1924023.950 8  -1490578.63347  21607033.832    21607039.9244
  24262350.911    -2441911.504 7  -1878009.83345  24262350.454    24262357.0804
 99  9 14 16 19 30.0000000  0  7 17 29 26 23 21 03 31
  20919777.074      692446.415 9    534136.43347  20919776.470    20919783.3474
  23161235.288    -3630644.220 8  -2809580.09345  23161235.200    23161242.4424
  23558020.177     2163458.007 8   1672752.28745  23558020.292    23558027.6004
  20721017.628      118664.313 9     47905.76248  20721017.088    20721023.2604
  21540920.764    -2074225.873 9  -1345838.99547  21540920.281    21540926.8524
  21598657.985    -1968041.301 8  -1524877.87747  21598657.661    21598663.7134
  24244081.797    -2537917.532 7  -1952819.75945  24244081.271    24244087.8944
 99  9 14 16 20  0.0000000  0  7 17 29 26 23 21 03 31
  20927802.658      734620.958 9    566999.67547  20927802.044    20927808.9154
  23141356.449    -3735108.064 8  -2890980.42946  23141356.313    23141363.5314
  23575445.599     2255029.124 8   1744106.35645  23575445.728    23575453.0194
  20725339.537      141375.866 9     65603.05348  20725339.006    20725345.1744
  21531249.565    -2125048.173 9  -1385440.78547  21531249.137    21531255.6814
  21590382.063    -2011531.763 8  -1558766.55747  21590381.760    21590387.8644
  24225865.547    -2633645.658 7  -2027413.09245  24225864.843    24225871.3074
 99  9 14 16 20 30.0000000  0  7 17 29 26 23 21 03 31
  20935891.238      777126.490 9    600120.83347  20935890.624    20935897.4614
  23121513.631    -3839382.495 8  -2972233.16446  23121513.480    23121520.7634
  23592936.516     2346944.186 8   1815728.42545  23592936.680    23592943.8914
  20729722.629      164409.319 9     83551.18148  20729722.102    20729728.3394
  21521632.821    -2175584.625 9  -1424819.83647  21521632.404    21521638.8884
  21582206.279    -2054496.029 8  -1592245.21447  21582206.019    21582212.0614
  24207704.621    -2729082.146 7  -2101779.19245  24207703.886    24207710.3524
 99  9 14 16 21  0.0000000  0  7 17 29 26 23 21 03 31
  20944040.033      819948.248 9    633488.39047  20944039.413    20944046.2754
  23101709.093    -3943455.953 8  -3053329.30146  23101709.049    23101716.2484
  23610493.680     2439206.976 8   1887621.43945  23610493.865    23610501.0364
  20734166.670      187762.752 9    101748.63548  20734166.145    20734172.3904
  21512071.651    -2225829.199 9  -1463971.45047  21512071.173    21512077.6864
  21574126.659    -2096955.121 8  -1625330.23547  21574126.393    21574132.2914
  24189599.951    -2824223.450 7  -2175915.25245  24189599.189    24189605.6594
 99  9 14 16 21 30.0000000  0  7 17 29 26 23 21 03 31
  20952250.166      863092.645 9    667107.36147  20952249.599    20952256.4014
  23081942.220    -4047331.530 8  -3134271.23746  23081942.094    23081949.4014
  23628115.455     2531809.208 8   1959778.96045  23628115.566    23628122.6784
  20738672.052      211438.146 9    120196.97348  20738671.516    20738677.6724
  21502563.367    -2275795.215 9  -1502906.00847  21502562.965    21502569.4864
  21566143.471    -2138907.290 8  -1658020.24547  21566143.180    21566149.0514
  24171549.869    -2919077.934 7  -2249827.82545  24171548.895    24171555.5334
 99  9 14 16 22  0.0000000  0  7 17 29 26 23 21 03 31
  20960521.532      906558.184 9    700976.57647  20960520.893    20960527.6774
  23062213.032    -4151009.265 8  -3215059.02446  23062212.922    23062220.1814
  23645801.328     2624749.638 8   2032200.03145  23645801.532    23645808.6704
  20743238.313      235433.863 9    138894.91648  20743237.785    20743243.9414
  21493107.930    -2325484.311 9  -1541624.78847  21493107.491    21493113.9514
  21558259.816    -2180336.274 8  -1690302.57947  21558259.548    21558265.4244
  24153552.880    -3013651.252 7  -2323521.31945  24153552.104    24153559.0974
 99  9 14 16 22 30.0000000  0  7 17 29 26 23 21 03 31
  20968855.027      950350.838 9    735100.67747  20968854.424    20968861.2104
  23042519.197    -4254500.419 8  -3295701.43446  23042519.146    23042526.3624
  23663550.566     2718021.403 8   2104879.26145  23663550.655    23663557.7634
  20747862.124      259732.103 9    157828.59348  20747861.564    20747867.7494
  21483708.872    -2374877.116 9  -1580112.68547  21483708.398    21483714.8614
  21550480.082    -2221218.953 8  -1722159.21747  21550479.833    21550485.7104
  24135609.677    -3107942.959 7  -2396995.37445  24135609.036    24135616.0234
 99  9 14 16 23  0.0000000  0  7 17 29 26 23 21 03 31
  20977252.525      994479.585 9    769486.67447  20977251.901    20977258.7174
  23022859.334    -4357813.353 8  -3376204.94446  23022859.137    23022866.5124
  23681360.413     2811612.022 8   2177806.95945  23681360.465    23681367.6354
  20752543.323      284331.682 9    176997.07648  20752542.764    20752548.9294
  21474365.804    -2423975.660 9  -1618371.29347  21474365.326    21474371.7114
  21542807.836    -2261537.478 8  -1753576.25847  21542807.545    21542813.4424
  24117722.015    -3201943.272 7  -2470242.35645  24117721.309    24117728.4324
 99  9 14 16 23 30.0000000  0  7 17 29 26 23 21 03 31
  20985716.760     1038959.524 9    804146.32447  20985716.161    20985723.0294
  23003233.434    -4460947.154 8  -3456568.88546  23003233.313    23003240.7624
  23699230.185     2905517.944 7   2250980.34345  23699230.264    23699237.3744
  20757282.232      309234.749 9    196402.04348  20757281.693    20757287.8394
  21465078.552    -2472780.303 9  -1656400.88747  21465078.106    21465084.5294
  21535246.400    -2301273.180 8  -1784539.14647  21535246.059    21535252.0304
  24099891.780    -3295641.556 7  -2543253.97245  24099891.062    24099898.2114
 99  9 14 16 24  0.0000000  0  7 17 29 26 23 21 03 31
  20994247.500     1083788.802 9    839078.19147  20994246.905    20994253.7614
  22983643.875    -4563891.390 8  -3536785.12846  22983643.615    22983651.0184
  23717160.113     2999740.288 8   2324400.29545  23717160.181    23717167.3124
  20762076.816      334430.541 9    216035.11148  20762076.284    20762082.4424
  21455846.261    -2521296.226 9  -1694205.50147  21455845.817    21455852.2794
  21527796.360    -2340422.897 8  -1815045.43347  21527796.097    21527802.1044
  24082120.894    -3389027.064 7  -2616021.87645  24082120.375    24082127.4044
 99  9 14 16 24 30.0000000  0  7 17 29 26 23 21 03 31
  21002846.007     1128974.058 9    874287.43247  21002845.403    21002852.2474
  22964089.746    -4666648.829 8  -3616855.82346  22964089.512    22964096.8814
  23735149.737     3094276.166 8   2398064.55345  23735149.887    23735156.9304
  20766925.141      359908.441 9    235887.99348  20766924.617    20766930.7774
  21446667.938    -2569529.002 9  -1731789.48247  21446667.431    21446673.9374
  21520454.640    -2379004.319 8  -1845108.88447  21520454.349    21520460.3764
  24064409.983    -3482098.933 7  -2688545.39945  24064409.396    24064416.3224
 99  9 14 16 25  0.0000000  0  7 17 29 26 23 21 03 31
  21011511.739     1174512.438 9    909771.84347  21011511.094    21011517.9434
  22944573.347    -4769207.653 8  -3696771.72546  22944573.123    22944580.6414
  23753198.417     3189121.899 7   2471970.25845  23753198.363    23753205.5194
  20771825.693      385660.957 9    255954.87248  20771825.175    20771831.3214
  21437539.504    -2617499.044 9  -1769168.74147  21437539.031    21437545.5084
  21513218.555    -2417030.295 8  -1874739.52147  21513218.269    21513224.3014
  24046755.066    -3574876.332 7  -2760839.44445  24046754.418    24046761.4464
 99  9 14 16 25 30.0000000  0  7 17 29 26 23 21 03 31
  21020241.348     1220386.840 9    945518.07947  21020240.770    21020247.6024
  22925096.452    -4871558.662 8  -3776525.69546  22925096.287    22925103.8534
  23771306.336     3284280.740 8   2546119.93945  23771306.498    23771313.8334
  20776779.031      411691.132 9    276238.11048  20776778.536    20776784.7494
  21428459.497    -2665214.666 9  -1806349.74247  21428459.037    21428465.5374
  21506086.279    -2454510.694 8  -1903945.03147  21506085.986    21506092.0764
  24029154.181    -3667370.876 7  -2832913.10345  24029153.473    24029160.3434
 99  9 14 16 26  0.0000000  0  7 17 29 26 23 21 03 31
  21029032.513     1266584.093 9    981515.90047  21029031.864    21029038.7364
  22905658.841    -4973703.787 8  -3856119.25546  22905658.633    22905666.2564
  23789473.836     3379751.202 8   2620512.45345  23789474.049    23789481.5514
  20781784.335      437994.188 9    296733.97648  20781783.850    20781790.0704
  21419427.620    -2712677.337 9  -1843333.64147  21419427.159    21419433.7004
  21499056.492    -2491452.478 8  -1932730.84647  21499056.223    21499062.3054
  24011606.830    -3759582.140 7  -2904766.01045  24011606.201    24011613.1564
 99  9 14 16 26 30.0000000  0  7 17 29 26 23 21 03 31
  21037885.536     1313107.044 9   1017767.50047  21037884.965    21037891.8634
  22886258.436    -5075652.786 8  -3935559.97046  22886258.374    22886266.0634
  23807701.447     3475537.121 8   2695150.76845  23807701.591    23807709.0074
  20786840.730      464565.210 9    317438.64648  20786840.220    20786846.4274
  21410446.380    -2759874.356 9  -1880110.54347  21410445.887    21410452.4184
  21492128.001    -2527862.092 8  -1961101.98547  21492127.750    21492133.8004
  23994112.491    -3851515.561 7  -2976402.42645  23994111.922    23994118.9604
 99  9 14 16 27  0.0000000  0  7 17 29 26 23 21 03 31
  21046798.523     1359944.684 9   1054264.31947  21046797.915    21046804.8164
  22866895.603    -5177404.654 8  -4014847.07046  22866895.548    22866903.2824
  23825989.699     3571642.427 8   2770037.96045  23825989.871    23825997.2324
  20791950.033      491414.416 9    338360.09048  20791949.503    20791955.7334
  21401514.300    -2806812.618 9  -1916685.80647  21401513.820    21401520.3604
  21485301.662    -2563735.150 8  -1989055.01447  21485301.375    21485307.3994
  23976673.564    -3943159.643 7  -3047813.39645  23976672.704    23976679.5334
 99  9 14 16 27 30.0000000  0  7 17 29 26 23 21 03 31
  21055771.262     1407096.755 9   1091006.14547  21055770.693    21055777.6054
  22847571.572    -5278952.856 8  -4093975.46546  22847571.525    22847579.2074
  23844339.236     3668069.188 8   2845175.63045  23844339.347    23844346.6764
  20797115.174      518557.482 9    359510.51348  20797114.667    20797120.9084
  21392631.774    -2853490.578 9  -1953058.24247  21392631.309    21392637.8374
  21478573.263    -2599093.109 8  -2016606.68647  21478572.983    21478579.0084
  23959292.893    -4034495.359 8  -3118984.04145  23959292.028    23959298.9354
 99  9 14 16 28  0.0000000  0  7 17 29 26 23 21 03 31
  21064806.718     1454578.099 9   1128004.54747  21064806.108    21064813.0244
  22828286.168    -5380298.275 8  -4172945.85946  22828286.086    22828293.6714
  23862746.594     3764799.805 8   2920550.10145  23862746.644    23862753.9534
  20802333.724      545980.607 9    380879.16548  20802333.184    20802339.4004
  21383799.788    -2899902.655 9  -1989223.49147  21383799.384    21383805.9474
  21471944.306    -2633928.186 8  -2043750.91247  21471944.092    21471950.1194
  23941972.182    -4125515.147 7  -3189908.55845  23941971.558    23941978.4564
 99  9 14 16 28 30.0000000  0  7 17 29 26 23 21 03 31
  21073905.236     1502390.778 9   1165261.13547  21073904.609    21073911.5144
  22809039.431    -5481440.226 8  -4251757.68846  22809039.401    22809046.9624
  23881211.663     3861832.962 8   2996160.29445  23881211.671    23881218.9254
  20807607.014      573691.731 9    402472.23048  20807606.454    20807612.6734
  21375018.587    -2946048.513 9  -2025181.30047  21375018.163    21375024.7544
  21465415.754    -2668236.069 8  -2070484.33347  21465415.532    21465421.5684
  23924712.748    -4216213.993 7  -3260582.96245  23924712.157    23924718.9484
 99  9 14 16 29  0.0000000  0  7 17 29 26 23 21 03 31
  21083066.766     1550534.424 9   1202775.61447  21083066.097    21083072.9964
  22789833.730    -5582366.552 8  -4330401.47746  22789833.707    22789841.3034
  23899731.645     3959156.069 8   3071996.42845  23899731.750    23899739.0324
  20812936.956      601700.743 9    424297.41648  20812936.374    20812942.6084
  21366285.844    -2991939.360 9  -2060940.39947  21366285.389    21366292.0164
  21458990.221    -2702002.721 8  -2096796.02247  21458989.940    21458996.0074
  23907516.232    -4306581.758 7  -3330999.38045  23907515.741    23907522.5644
 99  9 14 16 29 30.0000000  0  7 17 29 26 23 21 03 31
  21092292.638     1599016.370 9   1240553.70847  21092291.970    21092298.8764
  22770669.159    -5683076.660 8  -4408876.80646  22770669.184    22770676.7254
  23918304.457     4056757.450 8   3148049.40345  23918304.653    23918312.1064
  20818320.899      629993.533 9    446343.72548  20818320.327    20818326.5694
  21357604.074    -3037562.267 9  -2096490.71447  21357603.669    21357610.2904
  21452671.851    -2735205.763 8  -2122668.52747  21452671.614    21452677.6884
  23890380.899    -4396629.318 7  -3401166.28945  23890380.384    23890386.9774
 99  9 14 16 30  0.0000000  0  7 17 29 26 23 21 03 31
  21101584.815     1647846.987 9   1278603.49547  21101584.187    21101591.0814
  22751543.082    -5783585.441 8  -4487195.26546  22751543.025    22751550.4754
  23936929.435     4154631.746 8   3224315.01745  23936929.518    23936937.0494
  20823757.582      658563.553 9    468606.06048  20823757.023    20823763.2564
  21348975.949    -3082903.549 9  -2131821.58047  21348975.512    21348982.1144
  21446468.571    -2767804.389 8  -2148070.06447  21446468.319    21446474.3844
  23873305.570    -4486360.482 7  -3471086.66245  23873305.025    23873311.7264
 99  9 14 16 30 30.0000000  0  7 17 29 26 23 21 03 31
  21110943.697     1697027.947 9   1316926.27347  21110943.048    21110949.9684
  22732458.388    -5883875.823 8  -4565343.51846  22732458.377    22732465.8694
  23955609.384     4252794.452 7   3300805.37045  23955609.316    23955616.8084
  20829250.398      687428.451 9    491098.17048  20829249.870    20829256.1194
  21340403.084    -3127954.397 9  -2166926.13947  21340402.646    21340409.2234
  21440381.099    -2799794.391 8  -2172997.34047  21440380.823    21440386.9614
  23856289.462    -4575779.507 7  -3540763.81145  23856289.045    23856295.8344
 99  9 14 16 31  0.0000000  0  7 17 29 26 23 21 03 31
  21120371.685     1746572.454 9   1355532.33347  21120371.051    21120378.0324
  22713418.915    -5983928.940 8  -4643306.89546  22713418.838    22713426.2324
  23974342.239     4351236.867 7   3377513.70045  23974342.249    23974349.8304
  20834799.532      716588.865 9    513820.54848  20834798.969    20834805.2204
  21331888.605    -3172698.428 9  -2201791.61247  21331888.151    21331894.7464
  21434411.024    -2831167.337 8  -2197443.80447  21434410.746    21434416.8504
  23839333.351    -4664883.988 7  -3610195.85945  23839333.023    23839339.6024
 99  9 14 16 31 30.0000000  0  8 17 29 26 23 21 09 03 31
  21129872.708     1796500.342 8   1394437.13347  21129872.064    21129879.0234
  22694429.604    -6083718.340 8  -4721064.79646  22694429.544    22694436.8914
  23993132.394     4449979.095 7   3454455.62545  23993132.370    23993139.8814
  20840408.330      746063.583 9    536787.84348  20840407.766    20840414.1144
  21323439.178    -3217100.442 9  -2236390.59147  21323438.731    21323445.3034
  24445712.999    -4135286.658 8  -3207258.86345  24445712.624    24445723.1014
  21428561.636    -2861906.304 8  -2221396.25547  21428561.356    21428567.4334
  23822442.038    -4753647.635 7  -3679362.33345  23822441.767    23822448.3984
 99  9 14 16 32  0.0000000  0  8 17 29 26 23 21 09 03 31
  21139438.870     1846770.690 9   1433608.78447  21139438.231    21139445.1494
  22675486.000    -6183266.954 8  -4798635.05546  22675485.967    22675493.2154
  24011971.766     4548980.357 7   3531599.37045  24011971.667    24011979.2394
  20846070.529      775818.873 9    559973.76048  20846070.026    20846076.3994
  21315046.833    -3261202.657 9  -2270755.95047  21315046.400    21315052.9554
  24434069.309    -4196474.321 7  -3254937.49245  24434068.867    24434079.3294
  21422823.047    -2892063.050 8  -2244895.03047  21422822.738    21422828.8454
  23805614.099    -4842080.207 7  -3748270.78845  23805613.676    23805620.3784
 99  9 14 16 32 30.0000000  0  8 17 29 26 23 21 09 03 31
  21149069.653     1897380.258 9   1473044.75947  21149069.004    21149075.9454
  22656592.445    -6282553.247 8  -4876000.93046  22656592.368    22656599.5344
  24030860.830     4648242.154 7   3608946.15345  24030860.562    24030868.0874
  20851785.067      805848.781 9    583373.66948  20851784.560    20851790.8874
  21306708.058    -3305023.161 9  -2304901.79547  21306707.623    21306714.1954
  24422486.443    -4257342.363 7  -3302367.13845  24422486.084    24422496.3554
  21417191.717    -2921656.038 8  -2267954.51247  21417191.447    21417197.4464
  23788852.851    -4930161.041 7  -3816905.19745  23788852.380    23788859.1464
 99  9 14 16 33  0.0000000  0  8 17 29 26 23 21 09 03 31
  21158763.181     1948319.756 9   1512737.84047  21158762.523    21158769.4034
  22637746.861    -6381587.035 8  -4953170.02246  22637746.794    22637754.0304
  24049796.888     4747750.979 7   3686485.44245  24049796.612    24049804.0964
  20857549.163      836139.301 9    606976.65148  20857548.669    20857555.0064
  21298420.643    -3348573.844 9  -2338837.38947  21298420.181    21298426.7894
  24410963.457    -4317896.031 8  -3349551.83845  24410963.093    24410973.1824
  21411667.011    -2950688.988 8  -2290577.59847  21411666.692    21411672.6824
  23772161.757    -5017873.309 7  -3885252.41645  23772161.225    23772168.1094
 99  9 14 16 33 30.0000000  0  8 17 29 26 23 21 09 03 31
  21168518.039     1999581.781 8   1552682.21547  21168517.390    21168524.3484
  22618947.121    -6480380.513 8  -5030151.87346  22618946.999    22618954.2724
  24068781.619     4847516.294 7   3764224.60645  24068781.489    24068788.8314
  20863361.988      866685.735 9    630779.04948  20863361.495    20863367.8344
  21290181.237    -3391872.572 9  -2372576.66147  21290180.765    21290187.3344
  24399499.085    -4378141.767 8  -3396496.53845  24399498.599    24399508.3114
  21406248.118    -2979165.548 8  -2312767.13047  21406247.803    21406253.7684
  23755541.476    -5105213.672 7  -3953309.81645  23755541.031    23755547.8944
 99  9 14 16 34  0.0000000  0  8 17 29 26 23 21 09 03 31
  21178334.589     2051168.316 8   1592879.47147  21178333.945    21178340.9404
  22600191.674    -6578940.453 8  -5106951.75246  22600191.523    22600198.8904
  24087815.698     4947541.770 7   3842166.44145  24087815.712    24087823.1404
  20869223.046      897485.324 9    654778.71348  20869222.508    20869228.7894
  21281986.103    -3434937.996 9  -2406134.13047  21281985.658    21281992.2334
  24388093.199    -4438079.008 7  -3443200.89345  24388092.845    24388102.8454
  21400934.025    -3007091.396 8  -2334527.54447  21400933.692    21400939.7264
  23738991.147    -5192186.067 8  -4021080.52145  23738990.778    23738997.5914
 99  9 14 16 34 30.0000000  0  8 17 29 26 23 21 09 03 31
  21188212.262     2103075.839 8   1633326.83547  21188211.696    21188218.7164
  22581479.331    -6677274.025 8  -5183575.23946  22581479.157    22581486.5864
  24106900.825     5047834.030 7   3920316.20445  24106900.790    24106908.1134
  20875133.086      928542.702 9    678979.24848  20875132.567    20875138.8344
  21273835.683    -3477769.240 9  -2439509.12447  21273835.200    21273841.7594
  24376748.458    -4497696.011 8  -3489655.66645  24376748.078    24376758.1244
  21395723.548    -3034472.624 8  -2355863.57347  21395723.209    21395729.2764
  23722506.573    -5278814.174 8  -4088582.92845  23722506.001    23722512.7644
 99  9 14 16 35  0.0000000  0  8 17 29 26 23 21 09 03 31
  21198151.634     2155307.481 8   1674026.76347  21198151.065    21198158.1494
  22562809.013    -6775387.340 8  -5260027.11246  22562808.833    22562816.2844
  24126037.252     5148396.299 7   3998676.41045  24126037.272    24126044.3214
  20881094.702      959871.525 9    703391.29647  20881094.199    20881100.5094
  21265734.938    -3520338.916 9  -2472680.30347  21265734.448    21265740.9894
  24365468.389    -4556972.666 7  -3535845.20045  24365468.197    24365478.3254
  21390617.752    -3061303.744 8  -2376770.94947  21390617.444    21390623.5044
  23706085.449    -5365106.634 7  -4155823.77145  23706084.909    23706091.8134
 99  9 14 16 35 30.0000000  0  8 17 29 26 23 21 09 03 31
  21208155.234     2207876.527 8   1714989.60547  21208154.650    21208161.7724
  22544182.615    -6873268.904 8  -5336298.41146  22544182.597    22544189.8424
  24145226.801     5249236.940 7   4077253.45345  24145226.528    24145233.6894
  20887107.632      991469.380 9    728012.98747  20887107.117    20887113.4264
  21257685.499    -3562639.044 9  -2505641.44147  21257685.061    21257691.5654
  24354257.279    -4615887.626 7  -3581752.99245  24354257.098    24354267.2584
  21385618.251    -3087576.195 9  -2397242.99947  21385617.975    21385624.0294
  23689727.995    -5451066.832 8  -4222805.74045  23689727.353    23689734.1474
 99  9 14 16 36  0.0000000  0  8 17 29 26 23 21 09 03 31
  21218222.211     2260778.285 8   1756211.70547  21218221.601    21218228.7714
  22525603.724    -6970901.999 8  -5412376.10546  22525603.639    22525610.8084
  24164467.741     5350348.868 7   4156041.90745  24164467.648    24164474.8074
  20893171.395     1023334.345 9    752842.81747  20893170.839    20893177.1374
  21249689.625    -3604658.126 9  -2538383.58447  21249689.126    21249695.5914
  24343115.326    -4674439.299 7  -3627377.63645  24343115.023    24343125.2264
  21380727.072    -3113279.762 9  -2417271.75347  21380726.761    21380732.7944
  23673433.005    -5536697.394 8  -4289530.83345  23673432.384    23673439.1684
 99  9 14 16 36 30.0000000  0  8 17 29 26 23 21 09 03 31
  21228352.479     2314013.135 8   1797693.35347  21228351.888    21228359.0914
  22507073.344    -7068279.663 8  -5488254.75646  22507073.307    22507080.4654
  24183759.082     5451725.058 7   4235036.29345  24183758.982    24183766.1254
  20899285.313     1055463.361 9    777878.39547  20899284.756    20899291.1034
  21241749.695    -3646382.468 9  -2570896.05947  21241749.243    21241755.7304
  24332039.920    -4732640.622 7  -3672729.27845  24332039.609    24332049.8864
  21375946.642    -3138401.402 9  -2436847.06447  21375946.310    21375952.2524
  23657200.474    -5622000.588 7  -4356000.83445  23657199.672    23657206.4564
 99  9 14 16 37  0.0000000  0  8 17 29 26 23 21 09 03 31
  21238548.161     2367591.489 8   1839442.66547  21238547.560    21238554.7604
  22488594.242    -7165387.787 8  -5563923.38346  22488594.181    22488601.3594
  24203099.161     5553357.593 7   4314230.46145  24203099.073    24203106.0614
  20905447.115     1087843.912 9    803109.97147  20905446.600    20905452.9634
  21233863.971    -3687822.229 9  -2603186.78247  21233863.512    21233870.0074
  24321030.586    -4790494.771 7  -3717810.42845  24321030.341    24321040.6854
  21371281.154    -3162918.815 8  -2455951.54747  21371280.830    21371286.7474
  23641032.573    -5706962.461 7  -4422204.87245  23641031.914    23641038.7344
 99  9 14 16 37 30.0000000  0  8 17 29 26 23 21 09 03 31
  21248806.415     2421498.595 8   1881448.15547  21248805.778    21248812.9374
  22470168.606    -7262214.259 8  -5639372.53346  22470168.586    22470175.8694
  24222484.942     5655229.309 7   4393610.95345  24222484.722    24222491.6884
  20911654.602     1120464.133 9    828528.30447  20911654.093    20911660.3924
  21226027.368    -3729003.562 9  -2635276.13747  21226026.957    21226033.4784
  24310083.695    -4848020.406 7  -3762635.56645  24310083.391    24310093.7404
  21366730.195    -3186833.934 9  -2474586.71547  21366729.951    21366735.9164
  23624931.806    -5791573.777 7  -4488135.73445  23624931.031    23624937.7314
 99  9 14 16 38  0.0000000  0  8 17 29 26 23 21 09 03 31
  21259125.678     2475726.663 8   1923703.73147  21259125.084    21259132.3124
  22451795.758    -7358763.829 8  -5714605.92146  22451795.795    22451803.0804
  24241914.048     5757330.149 7   4473169.92545  24241913.783    24241920.8964
  20917910.422     1153338.228 9    854144.46347  20917909.902    20917916.1744
  21218240.228    -3769925.438 9  -2667163.32047  21218239.818    21218246.2924
  24299196.294    -4905233.952 7  -3807217.53545  24299196.016    24299206.4464
  21362291.983    -3210157.458 9  -2492760.89947  21362291.683    21362297.6474
  23608899.212    -5875824.410 7  -4553785.57145  23608898.610    23608905.3314
 99  9 14 16 38 30.0000000  0  8 17 29 26 23 21 09 03 31
  21269508.548     2530288.569 8   1966219.45947  21269507.936    21269515.2054
  22433474.244    -7455044.033 8  -5789629.43046  22433474.239    22433481.4684
  24261385.174     5859651.861 7   4552901.05145  24261384.882    24261392.1904
  20924214.422     1186466.002 9    879958.29747  20924213.888    20924220.1544
  21210502.503    -3810587.512 9  -2698848.05247  21210502.075    21210508.5514
  24288371.083    -4962121.463 7  -3851545.42845  24288370.781    24288381.1884
  21357964.386    -3232899.087 8  -2510481.65847  21357964.079    21357970.0394
  23592940.366    -5959689.141 8  -4619134.70645  23592939.668    23592946.4344
 99  9 14 16 39  0.0000000  0  8 17 29 26 23 21 09 03 31
  21279953.186     2585175.319 8   2008988.30147  21279952.595    21279959.9234
  22415202.658    -7551061.730 8  -5864448.37146  22415202.638    22415209.8314
  24280896.688     5962186.509 7   4632798.10745  24280896.565    24280904.0424
  20930567.733     1219852.762 9    905973.93947  20930567.210    20930573.4904
  21202813.724    -3850992.360 9  -2730332.34947  21202813.298    21202819.7764
  24277613.412    -5018652.101 7  -3895595.24045  24277613.239    24277623.4384
  21353745.871    -3255067.226 9  -2527755.54147  21353745.639    21353751.6294
  23577057.358    -6043153.686 7  -4684172.00145  23577056.913    23577063.6704
 99  9 14 16 39 30.0000000  0  8 17 29 26 23 21 09 03 31
  21290458.417     2640380.314 8   2052005.12947  21290457.793    21290465.1044
  22396977.920    -7646833.667 8  -5939075.82346  22396977.834    22396984.9434
  24300447.497     6064927.288 7   4712855.76245  24300447.420    24300455.1284
  20936972.741     1253511.133 9    932201.22147  20936972.216    20936978.5314
  21195176.044    -3891129.018 9  -2761607.67247  21195175.595    21195182.0674
  24266926.975    -5074809.658 7  -3939354.33645  24266926.816    24266937.0684
  21349635.195    -3276669.391 9  -2544588.40447  21349634.895    21349640.8994
  23561252.308    -6126209.356 7  -4748890.69245  23561251.945    23561258.6094
 99  9 14 16 40  0.0000000  0  8 17 29 26 23 21 09 03 31
  21301028.594     2695926.785 8   2095288.03647  21301028.005    21301035.2734
  22378797.257    -7742374.039 8  -6013522.83346  22378797.111    22378804.1694
  24320041.443     6167893.964 7   4793089.44645  24320041.465    24320049.1084
  20943430.651     1287447.453 9    958645.09347  20943430.115    20943436.4394
  21187591.200    -3930987.580 9  -2792666.28647  21187590.736    21187597.2394
  24256315.317    -5130574.621 7  -3982807.52945  24256315.053    24256325.5904
  21345634.267    -3297694.399 9  -2560971.53847  21345633.985    21345640.0224
  23545525.232    -6208856.317 7  -4813290.91345  23545524.673    23545531.3774
 99  9 14 16 40 30.0000000  0  8 17 29 26 23 21 09 03 31
  21311665.371     2751822.640 8   2138843.19247  21311664.701    21311671.9054
  22360661.599    -7837677.371 8  -6087785.14546  22360661.416    22360668.3974
  24339680.102     6271094.587 7   4873505.41845  24339679.980    24339687.6024
  20949938.338     1321645.388 9    985292.81447  20949937.800    20949944.1254
  21180058.928    -3970569.711 9  -2823509.51347  21180058.491    21180064.9964
  24245780.786    -5185933.751 7  -4025944.39945  24245780.444    24245790.9434
  21341744.804    -3318133.630 8  -2576898.21547  21341744.508    21341750.5704
  23529875.495    -6291095.504 7  -4877373.38845  23529875.046    23529881.6974
 99  9 14 16 41  0.0000000  0  8 17 29 26 23 21 09 03 31
  21322366.708     2808057.782 8   2182662.73447  21322365.963    21322373.1054
  22342573.370    -7932730.854 8  -6161852.76046  22342573.279    22342580.2664
  24359364.361     6374535.730 7   4954108.81345  24359364.303    24359371.8624
  20956496.562     1356108.937 9   1012147.50747  20956496.010    20956502.3524
  21172579.373    -4009875.087 9  -2854137.08247  21172578.928    21172585.3894
  24235321.189    -5240901.018 7  -4068776.03945  24235320.696    24235331.2364
  21337967.872    -3337981.592 9  -2592364.17747  21337967.563    21337973.6134
  23514300.675    -6372941.820 7  -4941149.70745  23514300.199    23514306.8404
 99  9 14 16 41 30.0000000  0  8 17 29 26 23 21 09 03 31
  21333134.320     2864641.835 8   2226754.14947  21333133.599    21333140.7684
  22324535.362    -8027521.208 8  -6235715.33646  22324535.236    22324542.3064
  24379096.294     6478226.447 7   5034906.68945  24379096.133    24379103.6584
  20963104.043     1390831.319 9   1039203.89447  20963103.475    20963109.8254
  21165153.315    -4048899.441 9  -2884545.67247  21165152.870    21165159.3374
  24224931.870    -5295496.176 7  -4111317.60745  24224931.399    24224942.1084
  21334303.665    -3357237.050 9  -2607368.43947  21334303.359    21334309.4384
  23498799.059    -6454402.090 7  -5004625.23045  23498798.810    23498805.4434
 99  9 14 16 42  0.0000000  0  8 17 29 26 23 21 09 03 31
  21343968.832     2921577.746 8   2271119.73347  21343968.158    21343975.3764
  22306551.832    -8122025.277 8  -6309354.82946  22306551.665    22306558.7664
  24398875.577     6582166.853 7   5115899.09045  24398875.489    24398882.9284
  20969759.133     1425804.023 9   1066455.32747  20969758.578    20969764.9344
  21157781.067    -4087640.952 9  -2914733.86447  21157780.603    21157787.0774
  24214610.891    -5349732.745 7  -4153579.79045  24214610.624    24214621.1444
  21330752.039    -3375900.774 9  -2621911.61547  21330751.748    21330757.8384
  23483369.211    -6535486.343 8  -5067807.74645  23483369.012    23483375.8184
 99  9 14 16 42 30.0000000  0  8 17 29 26 23 21 09 03 31
  21354866.578     2978845.721 8   2315744.07347  21354865.934    21354873.1484
  22288626.712    -8216222.049 8  -6382754.87146  22288626.655    22288633.6664
  24418696.925     6686328.809 7   5197064.19045  24418697.018    24418704.3554
  20976461.618     1461025.674 9   1093900.75047  20976461.058    20976467.4374
  21150463.564    -4126094.729 9  -2944697.85047  21150463.129    21150469.5934
  24204358.653    -5403609.399 7  -4195561.56545  24204358.361    24204368.8894
  21327313.809    -3393969.053 9  -2635990.79847  21327313.498    21327319.5754
  23468010.612    -6616197.133 8  -5130699.25545  23468010.354    23468017.1254
 99  9 14 16 43  0.0000000  0  8 17 29 26 23 21 09 03 31
  21365827.690     3036446.361 8   2360627.63247  21365827.046    21365834.2104
  22270761.439    -8310104.775 8  -6455910.20346  22270761.363    22270768.3824
  24438559.003     6790704.956 7   5278396.17345  24438559.147    24438566.6144
  20983214.022     1496509.793 9   1121550.69347  20983213.473    20983219.8394
  21143200.554    -4164262.286 9  -2974438.80747  21143200.087    21143206.5354
  24194176.084    -5457119.730 8  -4237257.85945  24194175.631    24194186.1274
  21323990.283    -3411434.316 9  -2649600.11247  21323990.009    21323996.0714
  23452722.031    -6696539.697 8  -5193303.83245  23452721.659    23452728.4394
 99  9 14 16 43 30.0000000  0  8 17 29 26 23 21 09 03 31
  21376854.472     3094392.067 8   2405780.07047  21376853.812    21376861.0144
  22252955.537    -8403675.317 8  -6528822.28146  22252955.430    22252962.4664
  24458461.650     6895293.560 7   5359893.71645  24458461.619    24458469.0234
  20990015.878     1532253.621 9   1149403.00547  20990015.305    20990021.6624
  21135991.704    -4202145.414 9  -3003958.12847  21135991.218    21135997.6704
  24184068.911    -5510233.531 8  -4278645.16745  24184068.517    24184078.8844
  21320783.930    -3428283.974 9  -2662729.72147  21320783.659    21320789.6954
  23437505.706    -6776502.079 8  -5255612.17345  23437505.333    23437512.1644
 99  9 14 16 44  0.0000000  0  8 17 29 26 23 21 09 03 31
  21387943.526     3152665.101 8   2451187.57647  21387942.865    21387950.0334
  22235208.924    -8496933.852 8  -6601491.22746  22235208.925    22235215.9664
  24478401.859     7000080.986 7   5441546.20545  24478401.935    24478409.5894
  20996865.592     1568248.877 9   1177451.23547  20996864.993    20996871.3614
  21128834.509    -4239756.558 9  -3033265.51747  21128834.062    21128840.5474
  24174039.787    -5562936.683 8  -4319712.49345  24174039.292    24174049.9364
  21317694.938    -3444516.641 9  -2675378.56447  21317694.687    21317700.7704
  23422363.325    -6856076.118 8  -5317617.90445  23422362.905    23422369.8084
 99  9 14 16 44 30.0000000  0  8 17 29 26 23 21 09 03 31
  21399094.109     3211261.618 8   2496847.13247  21399093.456    21399100.6784
  22217519.237    -8589894.189 8  -6673927.81446  22217519.132    22217526.1854
  24498379.952     7105065.818 8   5523352.47445  24498380.034    24498387.7144
  21003760.388     1604481.435 9   1205684.37147  21003759.840    21003766.2054
  21121729.042    -4277096.180 9  -3062361.32847  21121728.552    21121735.0944
  24164090.307    -5615220.948 8  -4360453.40645  24164089.868    24164100.6014
  21314721.401    -3460142.811 9  -2687554.81147  21314721.135    21314727.2094
  23407295.045    -6935260.674 8  -5379320.14245  23407294.567    23407301.5364
 99  9 14 16 45  0.0000000  0  8 17 29 26 23 21 09 03 31
  21410308.112     3270191.348 8   2542766.34947  21410307.442    21410314.6484
  22199883.359    -8682571.385 8  -6746143.76946  22199883.280    22199890.3244
  24518397.986     7210258.259 8   5605320.54245  24518397.786    24518405.3684
  21010697.705     1640937.026 9   1234091.30547  21010697.147    21010703.5204
  21114674.357    -4314168.520 9  -3091248.86747  21114673.885    21114680.4664
  24154219.710    -5667091.467 8  -4400871.90745  24154219.362    24154229.6314
  21311859.431    -3475182.352 9  -2699273.93647  21311859.177    21311865.2664
  23392301.581    -7014051.973 8  -5440715.93745  23392301.157    23392307.9964
 99  9 14 16 45 30.0000000  0  8 17 29 26 23 21 09 03 31
  21421583.215     3329442.459 8   2588935.98847  21421582.567    21421589.7894
  22182301.051    -8774966.863 8  -6818140.19446  22182300.993    22182308.0824
  24538451.494     7315639.458 8   5687435.66645  24538451.354    24538458.9304
  21017673.947     1677597.629 9   1262657.98447  21017673.437    21017679.8194
  21107671.071    -4350970.845 9  -3119926.00747  21107670.614    21107677.1824
  24144426.186    -5718556.986 8  -4440974.84845  24144425.782    24144436.1834
  21309107.714    -3489642.902 9  -2710541.91147  21309107.432    21309113.5554
  23377384.582    -7092441.438 8  -5501798.63045  23377384.093    23377390.8434
 99  9 14 16 46  0.0000000  0  8 17 29 26 23 21 09 03 31
  21432919.841     3389016.428 8   2635357.19647  21432919.179    21432926.4334
  22164772.933    -8867077.965 8  -6889915.03546  22164772.837    22164779.8594
  24558539.260     7421201.725 8   5769691.90745  24558539.237    24558546.6394
  21024689.365     1714463.774 9   1291384.82747  21024688.851    21024695.2464
  21100719.467    -4387501.787 9  -3148391.67847  21100719.016    21100725.5704
  24134705.340    -5769639.991 8  -4480779.71945  24134704.952    24134715.2444
  21306464.653    -3503532.468 9  -2721364.95647  21306464.352    21306470.5014
  23362542.831    -7170436.208 8  -5562573.74645  23362542.238    23362548.8214
 99  9 14 16 46 30.0000000  0  7 17 29 23 21 09 03 31
  21444321.920     3448934.550 8   2682046.58447  21444321.305    21444328.5074
  22147297.974    -8958909.632 8  -6961472.14446  22147297.805    22147304.7554
  21031745.022     1751541.289 9   1320276.36847  21031744.486    21031750.8694
  21093820.120    -4423757.993 9  -3176643.26947  21093819.702    21093826.2684
  24125056.310    -5820345.413 8  -4520290.37345  24125055.982    24125066.0204
  21303929.229    -3516855.989 9  -2731746.93847  21303928.947    21303935.0894
  23347775.834    -7248036.584 8  -5623041.56445  23347775.391    23347781.9484
 99  9 14 16 47  0.0000000  0  7 17 29 23 21 09 03 31
  21455791.716     3509208.512 8   2729013.24047  21455791.095    21455798.3044
  22129879.610    -9050443.473 8  -7032797.17246  22129879.503    22129886.4094
  21038845.221     1788852.809 9   1349350.25647  21038844.671    21038851.0694
  21086972.752    -4459741.362 9  -3204682.25947  21086972.333    21086978.8984
  24115482.849    -5870653.477 8  -4559491.40645  24115482.549    24115492.8214
  21301506.383    -3529588.402 9  -2741668.30847  21301506.074    21301512.2184
  23333087.718    -7325223.139 8  -5683186.91845  23333087.190    23333093.8144
 99  9 14 16 47 30.0000000  0  7 17 29 23 21 09 03 31
  21467328.005     3569831.771 8   2776252.08447  21467327.358    21467334.5894
  22112518.935    -9141673.922 8  -7103885.78246  22112518.902    22112525.8384
  21045991.447     1826406.613 9   1378612.93847  21045990.914    21045997.3274
  21080176.526    -4495455.849 9  -3232511.73247  21080176.118    21080182.6404
  24105985.657    -5920561.613 8  -4598380.80545  24105985.244    24105995.4494
  21299198.687    -3541715.508 9  -2751118.01447  21299198.382    21299204.5184
  23318478.395    -7401996.510 8  -5743010.31445  23318477.803    23318484.1854
 99  9 14 16 48  0.0000000  0  7 17 29 23 21 09 03 31
  21478932.334     3630812.719 8   2823769.64447  21478931.705    21478938.9844
  22095217.300    -9232594.755 8  -7174733.14746  22095217.240    22095224.1384
  21053185.094     1864209.492 9   1408069.70147  21053184.593    21053190.9844
  21073429.985    -4530909.186 9  -3260137.70447  21073429.548    21073436.0644
  24096567.151    -5970056.272 8  -4636947.98645  24096566.694    24096576.9474
  21297003.912    -3553249.491 9  -2760105.54647  21297003.571    21297009.7084
  23303948.761    -7478350.415 8  -5802506.86045  23303948.113    23303954.4524
 99  9 14 16 48 30.0000000  0  7 17 29 23 21 09 03 31
  21490601.236     3692132.907 8   2871551.54647  21490600.577    21490607.8194
  22077973.884    -9323208.747 8  -7245341.40446  22077973.827    22077980.8954
  21060425.108     1902255.833 9   1437716.17547  21060424.611    21060430.9594
  21066732.474    -4566104.996 9  -3287563.01847  21066732.015    21066738.4984
  24087229.333    -6019126.495 8  -4675184.48345  24087228.968    24087239.0624
  21294921.611    -3564191.782 9  -2768632.02447  21294921.323    21294927.4604
  23289499.393    -7554282.190 8  -5861674.46845  23289498.636    23289505.1424
 99  9 14 16 49  0.0000000  0  7 17 29 23 21 09 03 31
  21502330.954     3753773.212 8   2919582.88347  21502330.366    21502337.6194
  22060790.538    -9413507.779 8  -7315704.24146  22060790.433    22060797.4824
  21067711.271     1940544.711 9   1467551.64347  21067710.777    21067717.1494
  21060083.079    -4601047.840 9  -3314791.20847  21060082.628    21060089.0944
  24077971.802    -6067775.019 8  -4713092.35445  24077971.437    24077981.4404
  21292952.862    -3574537.781 9  -2776693.85347  21292952.586    21292958.6534
  23275128.391    -7629801.461 8  -5920520.64645  23275127.784    23275134.3604
 99  9 14 16 49 30.0000000  0  7 17 29 23 21 09 03 31
  21514120.437     3815726.950 8   2967858.45947  21514119.835    21514127.1514
  22043669.486    -9503479.287 8  -7385811.87046  22043669.365    22043676.4124
  21075043.914     1979077.836 9   1497577.42847  21075043.391    21075049.7964
  21053483.843    -4635727.204 9  -3341814.09247  21053483.397    21053489.8284
  24068793.565    -6116006.963 8  -4750675.59845  24068793.221    24068803.0054
  21291096.995    -3584290.627 9  -2784293.48347  21291096.641    21291102.7604
  23260837.822    -7704898.567 8  -5979037.86645  23260837.258    23260843.8674
 99  9 14 16 50  0.0000000  0  7 17 29 23 21 09 03 31
  21525967.537     3877983.513 8   3016370.01347  21525966.913    21525974.2254
  22026611.680    -9593118.475 8  -7455660.53746  22026611.545    22026618.5644
  21082421.446     2017846.888 9   1527787.04847  21082420.914    21082427.3284
  21046933.366    -4670150.384 9  -3368637.35147  21046932.921    21046939.3244
  24059695.260    -6163817.894 8  -4787930.80845  24059694.830    24059704.7334
  21289353.455    -3593452.979 9  -2791432.99047  21289353.118    21289359.2704
  23246628.932    -7779566.836 8  -6037220.92545  23246628.284    23246635.0004
 99  9 14 16 50 30.0000000  0  7 17 29 23 21 09 03 31
  21537869.971     3940531.077 8   3065108.29647  21537869.333    21537876.7424
  22009616.112    -9682430.950 8  -7525254.64546  22009615.990    22009622.9474
  21089843.831     2056851.245 9   1558180.02547  21089843.265    21089849.6684
  21040432.913    -4704310.844 9  -3395255.89947  21040432.422    21040438.8424
  24050676.606    -6211210.837 8  -4824860.29445  24050676.383    24050686.0384
  21287725.741    -3602006.466 9  -2798098.06347  21287725.454    21287731.6244
  23232499.673    -7853816.701 8  -6095077.94745  23232499.095    23232505.7124
 99  9 14 16 51  0.0000000  0  7 17 29 23 21 09 03 31
  21549829.775     4003379.945 8   3114081.37347  21549829.143    21549836.5854
  21992684.160    -9771408.084 8  -7594587.42946  21992684.122    21992691.1224
  21097310.690     2096089.558 9   1588755.31347  21097310.086    21097316.4964
  21033983.820    -4738200.856 9  -3421663.70047  21033983.336    21033989.7864
  24041739.099    -6258177.874 8  -4861457.91945  24041738.840    24041748.2964
  21286213.968    -3609951.237 9  -2804288.80647  21286213.671    21286219.8094
  23218451.955    -7927638.186 8  -6152601.15645  23218451.331    23218457.9654
 99  9 14 16 51 30.0000000  0  7 17 29 23 21 09 03 31
  21561847.703     4066534.217 8   3163292.43347  21561847.044    21561854.5014
  21975813.979    -9860061.422 8  -7663667.90146  21975813.931    21975820.9464
  21104819.928     2135550.873 9   1619504.36647  21104819.338    21104825.7914
  21027586.049    -4771821.346 9  -3447861.48647  21027585.546    21027592.0104
  24032883.916    -6304712.114 8  -4897718.24645  24032883.572    24032893.2914
  21284816.249    -3617296.545 9  -2810012.43347  21284815.879    21284822.0534
  23204488.936    -8001014.697 8  -6209777.65545  23204488.357    23204494.8554
 99  9 14 16 52  0.0000000  0  7 17 29 23 21 09 03 31
  21573926.322     4130007.582 8   3212752.12547  21573925.682    21573933.2364
  21959002.104    -9948408.607 8  -7732509.83146  21959002.039    21959008.9274
  21112370.049     2175227.283 9   1650421.02147  21112369.521    21112375.9894
  21021238.591    -4805177.626 9  -3473853.40247  21021238.080    21021244.5054
  24024110.998    -6350813.842 8  -4933641.61345  24024110.665    24024120.3884
  21283530.443    -3624053.567 9  -2815277.66547  21283530.119    21283536.2854
  23190608.170    -8073958.497 8  -6266616.97346  23190607.706    23190614.1934
 99  9 14 16 52 30.0000000  0  7 17 29 23 21 09 03 31
  21586068.800     4193816.553 8   3262473.32947  21586068.146    21586075.7894
  21942249.083   -10036446.712 8  -7801110.91047  21942248.987    21942255.7614
  21119964.336     2215135.305 9   1681518.15347  21119963.783    21119970.2674
  21014944.047    -4838255.874 9  -3499628.66247  21014943.507    21014949.9504
  24015418.669    -6396491.316 8  -4969234.36745  24015418.352    24015428.0744
  21282358.110    -3630214.188 9  -2820078.15847  21282357.761    21282363.9514
  23176811.144    -8146462.338 8  -6323113.46746  23176810.758    23176817.2294
 99  9 14 16 53  0.0000000  0  7 17 29 23 21 09 03 31
  21598277.899     4257975.572 8   3312467.29847  21598277.224    21598284.8384
  21925555.000   -10124175.249 8  -7869470.77047  21925554.854    21925561.5374
  21127602.884     2255276.250 9   1712796.79247  21127602.385    21127608.8954
  21008702.548    -4871055.001 9  -3525186.43047  21008702.038    21008708.4974
  24006806.912    -6441746.344 7  -5004497.95345  24006806.624    24006816.0124
  21281298.816    -3635780.691 9  -2824415.70847  21281298.533    21281304.6594
  23163102.812    -8218500.940 8  -6379247.42546  23163102.278    23163108.7404
 99  9 14 16 53 30.0000000  0  7 17 29 23 21 09 03 31
  21610554.105     4322487.355 8   3362736.15147  21610553.475    21610561.1274
  21908919.899   -10211592.821 8  -7937588.31547  21908919.801    21908926.5264
  21135287.578     2295659.532 9   1744264.25747  21135287.065    21135293.6024
  21002514.467    -4903573.712 9  -3550525.69347  21002513.962    21002520.4274
  23998273.959    -6486586.173 8  -5039438.00445  23998273.641    23998283.3794
  21280354.267    -3640744.863 9  -2828283.91147  21280353.927    21280360.0914
  23149482.683    -8290074.855 8  -6435019.32045  23149482.197    23149488.5524
 99  9 14 16 54  0.0000000  0  7 17 29 23 21 09 03 31
  21622898.632     4387357.834 8   3413284.50647  21622897.989    21622905.6764
  21892346.554   -10298686.317 8  -8005453.33047  21892346.414    21892353.2064
  21143020.640     2336296.646 9   1775929.51747  21143020.082    21143026.6344
  20996382.121    -4935799.433 9  -3575636.64847  20996381.597    20996388.0464
  23989822.197    -6531000.036 7  -5074046.10745  23989821.872    23989831.5344
  21279529.248    -3645080.543 9  -2831662.37647  21279528.918    21279535.0404
  23135950.239    -8361187.944 8  -6490432.11145  23135949.715    23135956.2134
 99  9 14 16 54 30.0000000  0  7 17 29 23 21 09 03 31
  21635310.386     4452581.823 8   3464108.32347  21635309.746    21635317.4534
  21875838.023   -10385438.410 8  -8073052.32147  21875837.953    21875844.8224
  21150803.784     2377197.135 9   1807800.00147  21150803.214    21150809.7384
  20990308.217    -4967718.021 9  -3600508.27647  20990307.712    20990314.1344
  23981455.432    -6574966.822 7  -5108305.86545  23981455.135    23981464.8214
  21278825.063    -3648781.237 9  -2834546.04647  21278824.726    21278830.8234
  23122508.367    -8431824.799 8  -6545473.81045  23122508.001    23122514.4284
 99  9 14 16 55  0.0000000  0  7 17 29 23 21 09 03 31
  21647789.862     4518161.573 8   3515209.35947  21647789.247    21647796.8444
  21859396.909   -10471836.644 8  -8140375.56947  21859396.854    21859403.7144
  21158634.298     2418346.712 9   1839864.58647  21158633.733    21158640.2854
  20984290.877    -4999339.439 9  -3625148.34547  20984290.348    20984296.7794
  23973178.063    -6618463.106 8  -5142198.99945  23973177.924    23973187.8104
  21278239.736    -3651857.159 9  -2836942.87947  21278239.451    21278245.5354
  23109155.771    -8501993.003 8  -6600150.34845  23109155.495    23109161.9144
 99  9 14 16 55 30.0000000  0  7 17 29 23 21 09 03 31
  21660334.815     4584084.984 8   3566578.17647  21660334.162    21660341.6504
  21843025.944   -10557867.331 8  -8207412.43147  21843025.808    21843032.5344
  21166510.530     2459736.571 9   1872116.40147  21166509.980    21166516.5274
  20978326.943    -5030680.201 9  -3649569.72547  20978326.427    20978332.8464
  23964992.386    -6661480.308 7  -5175718.82145  23964992.212    23965001.9744
  21277772.058    -3654315.434 9  -2838858.43047  21277771.685    21277777.7654
  23095888.740    -8571712.032 8  -6654476.86045  23095888.279    23095894.8234
 99  9 14 16 56  0.0000000  0  7 17 29 23 21 09 03 31
  21672943.284     4650341.963 8   3618206.92047  21672942.544    21672950.0824
  21826725.261   -10643527.360 8  -8274160.46547  21826725.223    21826731.9324
  21174429.945     2501352.971 9   1904544.74047  21174429.378    21174435.8854
  20972413.457    -5061755.995 9  -3673784.63347  20972412.931    20972419.3684
  23956898.707    -6704011.599 7  -5208860.02545  23956898.525    23956908.5234
  21277417.565    -3656178.317 9  -2840310.04947  21277417.210    21277423.3174
  23082706.414    -8640985.470 8  -6708456.13545  23082705.915    23082712.4754
 99  9 14 16 56 30.0000000  0  7 17 29 23 21 09 03 31
  21685613.073     4716921.996 8   3670087.39447  21685612.373    21685619.8684
  21810496.801   -10728808.656 8  -8340613.37247  21810496.678    21810503.4694
  21182389.818     2543182.163 9   1937138.88947  21182389.237    21182395.7284
  20966547.909    -5092579.991 9  -3697803.34547  20966547.371    20966553.8004
  23948895.474    -6746069.109 7  -5241632.06645  23948895.315    23948905.2664
  21277172.090    -3657468.129 9  -2841315.11047  21277171.770    21277177.8544
  23069608.336    -8709815.852 8  -6762090.19445  23069607.853    23069614.5224
 99  9 14 16 57  0.0000000  0  7 17 29 23 21 09 03 31
  21698342.738     4783816.083 8   3722212.58447  21698341.990    21698349.4384
  21794339.274   -10813716.913 8  -8406775.61647  21794339.183    21794345.9614
  21190384.476     2585194.278 9   1969875.58247  21190383.912    21190390.4234
  20960726.047    -5123174.246 9  -3721643.03047  20960725.522    20960731.9254
  23940979.234    -6787668.893 7  -5274047.39745  23940979.025    23940988.8634
  21277034.997    -3658188.667 9  -2841876.58447  21277034.705    21277040.7814
  23056592.942    -8778212.420 8  -6815386.21246  23056592.473    23056599.0264
 99  9 14 16 57 30.0000000  0  7 17 29 23 21 09 03 31
  21711128.722     4851006.742 8   3774568.86547  21711127.939    21711135.5084
  21778249.136   -10898271.093 8  -8472661.95947  21778249.062    21778255.7744
  21198411.059     2627374.010 9   2002742.88447  21198410.476    21198416.9674
  20954949.992    -5153527.245 9  -3745294.72047  20954949.480    20954955.8924
  23933147.743    -6828822.790 7  -5306115.30045  23933147.607    23933157.4304
  21277005.173    -3658345.336 9  -2841998.67847  21277004.836    21277010.9814
  23043659.123    -8846181.100 8  -6868348.80646  23043658.547    23043665.0284
 99  9 14 16 58  0.0000000  0  7 17 29 23 21 09 03 31
  21723972.088     4918499.441 8   3827160.51647  21723971.368    21723978.9754
  21762224.071   -10982482.978 8  -8538281.57147  21762223.966    21762230.8184
  21206469.440     2669720.970 9   2035740.48747  21206468.867    21206475.3394
  20949223.498    -5183620.042 9  -3768743.66047  20949222.995    20949229.4264
  23925401.602    -6869528.829 7  -5337834.23945  23925401.420    23925411.2284
  21277083.337    -3657934.220 9  -2841678.34847  21277083.042    21277089.2294
  23030807.788    -8913716.052 8  -6920973.44046  23030807.124    23030813.5254
 99  9 14 16 58 30.0000000  0  7 17 29 23 21 09 03 31
  21736874.584     4986302.550 8   3879994.03547  21736873.905    21736881.6624
  21746262.465   -11066361.625 8  -8603641.52147  21746262.356    21746269.2154
  21214560.444     2712239.428 9   2068871.72747  21214559.866    21214566.3754
  20943547.426    -5213447.974 9  -3791986.20647  20943546.904    20943553.3404
  23917741.824    -6909780.610 8  -5369199.19745  23917741.722    23917751.5514
  21277275.423    -3656924.745 9  -2840891.75947  21277275.179    21277281.3544
  23018041.540    -8980802.742 8  -6973248.78146  23018040.962    23018047.3734
 99  9 14 16 59  0.0000000  0  8 17 08 29 23 21 09 03 31
  21749833.687     5054402.651 8   3933058.98747  21749832.984    21749840.7204
  24691325.568    -2552175.575 7  -1744276.93845  24691324.682    24691337.0754
  21730358.777   -11149935.414 8  -8668763.92347  21730358.706    21730365.5694
  21222682.296     2754920.339 9   2102129.55647  21222681.743    21222688.2894
  20937920.321    -5243018.645 9  -3815028.29347  20937919.830    20937926.2654
  23910166.522    -6949589.422 8  -5400218.97545  23910166.376    23910176.2484
  21277578.914    -3655329.918 9  -2839649.05347  21277578.669    21277584.8174
  23005358.222    -9047453.955 8  -7025184.77046  23005357.583    23005364.1464
 99  9 14 16 59 30.0000000  0  8 17 08 29 23 21 09 03 31
  21762854.530     5122828.345 8   3986377.62047  21762853.900    21762861.7984
  24674583.244    -2640155.587 7  -1812832.57945  24674582.552    24674594.5964
  21714518.163   -11233178.326 8  -8733628.50647  21714518.112    21714524.9244
  21230846.034     2797820.913 9   2135558.54947  21230845.482    21230852.0314
  20932349.191    -5272295.156 9  -3837841.16447  20932348.667    20932355.1494
  23902680.890    -6988926.615 7  -5430871.24745  23902680.709    23902690.7284
  21278002.142    -3653106.204 9  -2837916.30247  21278001.836    21278007.9814
  22992764.540    -9113633.765 8  -7076753.46346  22992764.031    22992770.6104
 99  9 14 17  0  0.0000000  0  8 17 08 29 23 21 09 03 31
  21775940.939     5191597.190 8   4039963.66347  21775940.350    21775948.1944
  24657859.963    -2728036.345 7  -1881310.93644  24657859.289    24657870.9294
  21698744.972   -11316066.718 8  -8798216.82747  21698744.902    21698751.8224
  21239057.455     2840972.104 9   2169182.83347  21239056.897    21239063.4604
  20926832.621    -5301284.798 9  -3860430.50447  20926832.106    20926838.6244
  23895287.646    -7027777.677 8  -5461144.73045  23895287.536    23895297.5534
  21278549.021    -3650232.508 9  -2835677.07547  21278548.747    21278554.8574
  22980265.668    -9179315.131 8  -7127933.73746  22980265.213    22980271.8364
 99  9 14 17  0 30.0000000  0  8 17 08 29 23 21 09 03 31
  21789090.484     5260698.705 8   4093808.93146  21789089.867    21789097.7984
  24641156.284    -2815814.706 7  -1949709.55244  24641155.464    24641166.9924
  21683040.930   -11398591.329 8  -8862521.69347  21683040.934    21683047.8454
  21247316.998     2884376.123 9   2203004.12047  21247316.429    21247323.0034
  20921367.446    -5330004.349 9  -3882809.38247  20921366.999    20921373.5104
  23887983.871    -7066159.078 8  -5491052.21545  23887983.783    23887993.6594
  21279217.480    -3646719.616 9  -2832939.77247  21279217.234    21279223.3704
  22967861.807    -9244498.045 8  -7178725.60746  22967861.320    22967867.9634
 99  9 14 17  1  0.0000000  0  8 17 08 29 23 21 09 03 31
  21802303.416     5330132.938 8   4147913.45446  21802302.840    21802310.7604
  24624474.781    -2903475.816 7  -2018016.76245  24624474.102    24624485.2904
  21667408.506   -11480739.385 8  -8926533.12247  21667408.535    21667415.5714
  21255625.361     2928037.087 9   2237025.62647  21255624.807    21255631.4224
  20915955.470    -5358444.620 9  -3904970.63047  20915954.976    20915961.4874
  23880768.521    -7104076.456 7  -5520598.12145  23880768.338    23880778.1744
  21280003.242    -3642590.587 9  -2829722.36547  21280002.960    21280009.1294
  22955552.005    -9309186.863 8  -7229132.46946  22955551.472    22955558.0204
 99  9 14 17  1 30.0000000  0  8 17 08 29 23 21 09 03 31
  21815580.632     5399904.125 8   4202280.53846  21815579.998    21815587.8574
  24607815.411    -2991019.735 8  -2086232.61745  24607814.775    24607826.1814
  21651848.966   -11562505.389 8  -8990246.87147  21651848.997    21651855.9324
  21263982.318     2971953.245 9   2271245.98547  21263981.792    21263988.4114
  20910594.712    -5386615.707 9  -3926922.12747  20910594.227    20910600.7724
  23873642.664    -7141523.232 8  -5549777.37045  23873642.381    23873652.3914
  21280906.989    -3637841.678 9  -2826021.93347  21280906.675    21280912.8454
  22943339.541    -9373363.815 8  -7279140.47246  22943339.037    22943345.4894
 99  9 14 17  2  0.0000000  0  8 17 08 29 23 21 09 03 31
  21828922.005     5470013.198 8   4256910.90546  21828921.382    21828929.2594
  24591178.168    -3078449.066 7  -2154359.24445  24591177.562    24591188.7764
  21636361.058   -11643895.062 8  -9053667.36047  21636361.019    21636367.8834
  21272384.291     3016105.632 9   2305650.41947  21272383.755    21272390.3754
  20905284.370    -5414521.998 9  -3948667.29747  20905283.833    20905290.3884
  23866605.072    -7178505.850 8  -5578594.88345  23866604.764    23866614.6604
  21281925.369    -3632489.965 9  -2821851.78547  21281925.070    21281931.2524
  22931224.289    -9437029.649 8  -7328750.21346  22931223.904    22931230.2244
 99  9 14 17  2 30.0000000  0  8 17 08 29 23 21 09 03 31
  21842327.065     5540456.856 8   4311801.99546  21842326.442    21842334.3654
  24574564.132    -3165756.249 7  -2222390.63845  24574563.395    24574574.6894
  21620944.026   -11724912.375 8  -9116797.70947  21620943.972    21620950.7824
  21280828.869     3060481.760 9   2340229.18947  21280828.309    21280834.9414
  20900026.151    -5442153.577 9  -3970198.40047  20900025.663    20900032.2714
  23859654.733    -7215030.005 8  -5607055.18645  23859654.375    23859664.2404
  21283057.204    -3626542.225 9  -2817217.19847  21283056.916    21283063.0744
  22919206.082    -9500186.206 8  -7377963.10746  22919205.535    22919211.8864
 99  9 14 17  3  0.0000000  0  8 17 08 29 23 21 09 03 31
  21855795.084     5611231.492 8   4366950.97846  21855794.428    21855802.4084
  24557974.514    -3252934.042 7  -2290321.27745  24557973.769    24557985.3584
  21605595.354   -11805570.336 8  -9179648.04147  21605595.258    21605601.9814
  21289311.839     3105060.084 9   2374965.51847  21289311.296    21289317.9494
  20894819.177    -5469516.402 9  -3991520.08547  20894818.718    20894825.3394
  23852795.282    -7251076.853 8  -5635143.56245  23852794.964    23852804.7624
  21284302.757    -3619996.968 9  -2812117.01947  21284302.444    21284308.6094
  22907284.473    -9562834.343 8  -7426779.84146  22907283.898    22907290.3444
 99  9 14 17  3 30.0000000  0  8 17 08 29 23 21 09 03 31
  21869322.626     5682319.010 8   4422343.78146  21869321.983    21869329.9284
  24541406.470    -3339999.007 7  -2358163.99545  24541405.709    24541417.1674
  21590312.585   -11885881.724 8  -9242228.31047  21590312.508    21590319.2334
  21297828.843     3149817.074 9   2409841.07147  21297828.320    21297834.9214
  20889659.829    -5496629.266 9  -4012646.99247  20889659.350    20889665.9084
  23846026.572    -7286646.819 8  -5662860.34245  23846026.189    23846035.9114
  21285660.758    -3612860.591 9  -2806556.22147  21285660.454    21285666.6444
  22895457.813    -9624983.962 8  -7475208.11746  22895457.245    22895463.6954
 99  9 14 17  4  0.0000000  0  8 17 08 29 23 21 09 03 31
  21882906.833     5753704.543 8   4477968.78546  21882906.249    21882914.2964
  24524860.266    -3426949.648 7  -2425917.62445  24524859.503    24524871.1344
  21575098.171   -11965834.096 8  -9304528.82347  21575098.090    21575104.8054
  21306378.261     3194744.345 9   2444849.30447  21306377.742    21306384.3294
  20884548.993    -5523486.743 9  -4033574.89947  20884548.558    20884555.0474
  23839349.399    -7321734.696 8  -5690201.48045  23839349.083    23839358.6684
  21287128.927    -3605145.254 9  -2800544.29347  21287128.637    21287134.8304
  22883721.726    -9686657.770 8  -7523265.63446  22883721.229    22883727.5854
 99  9 14 17  4 30.0000000  0  8 17 08 29 23 21 09 03 31
  21896547.608     5825386.284 8   4533824.61146  21896546.946    21896554.9864
  24508335.522    -3513785.584 7  -2493581.85345  24508334.884    24508346.6334
  21559954.768   -12045413.695 8  -9366538.88047  21559954.684    21559961.2734
  21314960.293     3239843.013 9   2479991.10147  21314959.740    21314966.3194
  20879485.211    -5550097.333 9  -4054310.42647  20879484.744    20879491.2394
  23832769.000    -7356315.066 8  -5717147.14445  23832768.658    23832778.2034
  21288707.158    -3596851.798 9  -2794081.87647  21288706.845    21288713.0314
  22872074.641    -9747863.886 8  -7570958.69646  22872074.142    22872080.4824
 99  9 14 17  5  0.0000000  0  8 17 08 29 23 21 09 03 31
  21910245.420     5897368.969 8   4589914.93546  21910244.793    21910252.7964
  24491831.727    -3600514.962 7  -2561163.11545  24491830.888    24491842.4954
  21544882.379   -12124619.930 8  -9428257.98247  21544882.238    21544888.8914
  21323574.205     3285109.064 9   2515263.32547  21323573.607    21323580.1844
  20874466.700    -5576469.724 9  -4074860.34447  20874466.248    20874472.7514
  23826287.476    -7390375.495 8  -5743687.67345  23826287.235    23826296.7114
  21290394.843    -3587982.844 9  -2787171.02247  21290394.547    21290400.7034
  22860514.544    -9808613.004 8  -7618295.66646  22860513.985    22860520.2694
 99  9 14 17  5 30.0000000  0  8 17 08 29 23 21 09 03 31
  21923999.555     5969646.957 8   4646235.37046  21923998.911    21924006.9004
  24475347.574    -3687137.540 7  -2628661.09845  24475347.051    24475358.5064
  21529883.883   -12203437.089 8  -9489673.92247  21529883.792    21529890.4354
  21332223.792     3330563.081 9   2550682.01547  21332223.229    21332229.7954
  20869496.703    -5602587.645 9  -4095211.97747  20869496.208    20869502.6984
  23819902.489    -7423928.060 8  -5769832.46445  23819902.155    23819911.7424
  21292192.381    -3578536.348 9  -2779810.14047  21292192.152    21292198.3604
  22849041.602    -9868903.397 8  -7665275.17746  22849041.098    22849047.4414
 99  9 14 17  6  0.0000000  0  8 17 08 29 23 21 09 03 31
  21937812.872     6042235.605 8   4702797.87546  21937812.158    21937820.1604
  24458889.726    -3773624.350 7  -2696053.31745  24458889.114    24458900.5674
  21514964.279   -12281839.782 8  -9550766.88747  21514964.181    21514970.8684
  21340911.263     3376215.991 9   2586255.68447  21340910.725    21340917.2844
  20864576.418    -5628443.911 9  -4115359.71747  20864575.915    20864582.4344
  23813615.862    -7456965.041 8  -5795575.47145  23813615.587    23813624.9574
  21294103.506    -3568493.245 9  -2771984.36847  21294103.299    21294109.5344
  22837657.192    -9928728.221 8  -7711891.90746  22837656.699    22837663.1914
 99  9 14 17  6 30.0000000  0  8 17 08 29 23 21 09 03 31
  21951686.995     6115143.885 8   4759609.44146  21951686.284    21951694.1984
  24442459.271    -3859966.129 7  -2763332.55945  24442458.708    24442470.2204
  21500121.406   -12359839.572 8  -9611545.91547  21500121.355    21500127.9424
  21349637.107     3422070.373 9   2621986.34047  21349636.574    21349643.1124
  20859705.029    -5654043.426 9  -4135307.39647  20859704.527    20859711.0344
  23807425.852    -7489494.349 8  -5820922.92645  23807425.434    23807434.7214
  21296129.120    -3557849.550 9  -2763690.60247  21296128.777    21296135.0164
  22826364.686    -9988069.801 8  -7758132.09446  22826364.357    22826370.9104
 99  9 14 17  7  0.0000000  0  8 17 08 29 23 21 09 03 31
  21965621.038     6188367.578 8   4816666.78046  21965620.377    21965628.2954
  24426058.147    -3946153.771 7  -2830491.67845  24426057.592    24426069.0144
  21485353.880   -12437443.899 8  -9672016.78247  21485353.739    21485360.3124
  21358402.035     3468130.271 9   2657877.14747  21358401.496    21358408.0314
  20854885.952    -5679368.201 9  -4155040.98747  20854885.413    20854891.8944
  23801327.795    -7521538.378 8  -5845892.24745  23801327.483    23801336.9654
  21298268.716    -3546605.760 9  -2754929.22947  21298268.406    21298274.6814
  22815166.758   -10046915.940 8  -7803986.19446  22815166.279    22815172.8494
 99  9 14 17  7 30.0000000  0  8 17 08 29 23 21 09 03 31
  21979615.550     6261908.427 8   4873971.25146  21979614.850    21979622.8474
  24409689.537    -4032171.473 7  -2897518.41945  24409689.013    24409700.1884
  21470662.486   -12514647.262 8  -9732175.20447  21470662.360    21470669.0514
  21367206.901     3514399.922 9   2693931.39347  21367206.351    21367212.8874
  20850120.566    -5704410.271 9  -4174554.29247  20850120.012    20850126.5514
  23795321.163    -7553104.229 8  -5870488.93545  23795320.782    23795330.0794
  21300524.210    -3534753.175 9  -2745693.47147  21300523.914    21300530.1764
  22804067.222   -10105243.732 8  -7849436.41046  22804066.823    22804073.3614
 99  9 14 17  8  0.0000000  0  8 17 08 29 23 21 09 03 31
  21993672.810     6335779.890 8   4931533.34446  21993672.137    21993680.1714
  24393351.740    -4118027.533 7  -2964419.16145  24393351.315    24393362.3314
  21456044.076   -12591467.073 8  -9792034.75547  21456043.950    21456050.6704
  21376047.831     3560859.444 9   2730133.58647  21376047.310    21376053.8444
  20845407.192    -5729178.808 9  -4193854.45847  20845406.715    20845413.2474
  23789407.503    -7584180.697 8  -5894704.29745  23789406.997    23789416.2994
  21302894.269    -3522298.027 9  -2735988.18347  21302894.053    21302900.3324
  22793067.287   -10163049.511 8  -7894479.85846  22793066.788    22793073.2414
 99  9 14 17  8 30.0000000  0  8 17 08 29 23 21 09 03 31
  22007792.996     6409981.473 8   4989352.68446  22007792.302    22007800.3134
  24377040.847    -4203740.306 7  -3031208.24245  24377040.276    24377051.7644
  21441493.748   -12667928.859 8  -9851615.32847  21441493.683    21441500.4014
  21384926.203     3607515.556 9   2766488.96547  21384925.704    21384932.2994
  20840747.934    -5753663.346 9  -4212933.32647  20840747.461    20840753.9874
  23783586.058    -7614771.866 8  -5918541.50345  23783585.676    23783595.0234
  21305377.432    -3509249.327 9  -2725820.38547  21305377.154    21305383.4114
  22782167.621   -10220326.520 8  -7939111.28646  22782167.274    22782173.6894
 99  9 14 17  9  0.0000000  0  8 17 08 29 23 21 09 03 31
  22021976.990     6484518.512 8   5047433.40446  22021976.303    22021984.3964
  24360757.511    -4289310.533 7  -3097886.29045  24360756.969    24360768.2224
  21427013.588   -12744022.833 8  -9910909.29847  21427013.497    21427020.1404
  21393840.975     3654362.890 9   2802993.35147  21393840.482    21393847.0964
  20836144.300    -5777855.502 9  -4231784.35947  20836143.838    20836150.3684
  23777859.225    -7644866.388 8  -5941991.67945  23777858.821    23777868.1964
  21307976.844    -3495589.384 9  -2715176.29747  21307976.575    21307982.8484
  22771368.449   -10277076.894 8  -7983332.34846  22771368.070    22771374.4544
 99  9 14 17  9 30.0000000  0  8 17 08 29 23 21 09 03 31
  22036223.807     6559385.763 8   5105771.44646  22036223.110    22036231.2614
  24344500.794    -4374739.544 8  -3164454.29845  24344500.213    24344511.5414
  21412606.007   -12819735.124 8  -9969905.85547  21412605.891    21412612.5044
  21402789.597     3701387.992 9   2839636.25847  21402789.077    21402795.7374
  20831593.409    -5801770.522 9  -4250419.44447  20831592.938    20831599.4774
  23772230.084    -7674447.517 8  -5965041.83145  23772229.688    23772238.9204
  21310693.066    -3481315.852 9  -2704054.08447  21310692.794    21310699.0454
  22760668.117   -10333307.629 8  -8027148.52046  22760667.738    22760674.0304
 99  9 14 17 10  0.0000000  0  8 17 08 29 23 21 09 03 31
  22050530.607     6634568.126 8   5164355.01846  22050529.875    22050538.0924
  24328270.316    -4460032.281 8  -3230916.11845  24328269.679    24328280.7664
  21398273.016   -12895055.195 8 -10028596.77747  21398272.874    21398279.5444
  21411772.645     3748594.280 9   2876420.34847  21411772.129    21411778.8034
  20827095.824    -5825405.785 9  -4268836.53847  20827095.332    20827101.8514
  23766700.156    -7703506.532 8  -5987685.12145  23766699.746    23766709.0184
  21313524.903    -3466434.376 9  -2692458.15447  21313524.634    21313530.8804
  22750064.482   -10389030.420 8  -8070568.87546  22750064.048    22750070.2134
 99  9 14 17 10 30.0000000  0  8 17 08 29 23 21 09 03 31
  22064896.727     6710062.162 8   5223181.44446  22064895.980    22064904.2124
  24312069.214    -4545170.429 8  -3297257.48145  24312068.495    24312079.6024
  21384017.618   -12969967.207 8 -10086969.73647  21384017.553    21384024.2494
  21420792.363     3795993.254 9   2913354.58047  21420791.874    21420798.5684
  20822651.513    -5848760.826 9  -4287035.27647  20822650.989    20822657.5104
  23761269.255    -7732046.838 8  -6009924.24045  23761268.786    23761277.9274
  21316473.489    -3450939.806 9  -2680384.48447  21316473.213    21316479.4304
  22739557.533   -10444244.563 8  -8113592.89346  22739557.172    22739563.2194
 99  9 14 17 11  0.0000000  0  8 17 08 29 23 21 09 03 31
  22079321.679     6785866.227 8   5282249.46246  22079321.014    22079329.3104
  24295898.693    -4630146.303 8  -3363472.38745  24295898.010    24295909.1984
  21369845.167   -13044443.734 8 -10145003.35747  21369845.134    21369851.7914
  21429847.879     3843579.943 9   2950435.08447  21429847.365    21429854.0374
  20818258.056    -5871848.399 9  -4305025.59247  20818257.560    20818264.0954
  23755937.769    -7760062.645 8  -6031754.65145  23755937.357    23755946.5184
  21319538.266    -3434834.731 9  -2667835.09647  21319537.891    21319544.1744
  22729148.206   -10498946.035 8  -8156217.42146  22729147.809    22729153.9184
 99  9 14 17 11 30.0000000  0  8 17 08 29 23 21 09 03 31
  22093804.101     6861971.065 8   5341551.84946  22093803.398    22093811.6314
  24279760.655    -4714952.272 8  -3429554.91945  24279759.962    24279771.0894
  21355756.060   -13118482.852 8 -10202696.13947  21355755.978    21355762.5794
  21438940.935     3891363.606 9   2987669.07947  21438940.370    21438947.0024
  20813915.039    -5894671.280 9  -4322809.65747  20813914.527    20813921.0714
  23750706.946    -7787550.505 8  -6053173.66945  23750706.498    23750715.5884
  21322715.428    -3418138.325 9  -2654824.93547  21322715.122    21322721.4664
  22718838.459   -10553124.018 8  -8198434.02646  22718838.056    22718844.1744
 99  9 14 17 12  0.0000000  0  8 17 08 29 23 21 09 03 31
  22108345.054     6938384.003 8   5401094.30946  22108344.381    22108352.6054
  24263655.765    -4799583.790 8  -3495501.51545  24263655.011    24263666.1454
  21341747.040   -13192100.618 9 -10260060.59847  21341746.946    21341753.5674
  21448072.365     3939349.720 9   3025060.82647  21448071.809    21448078.4884
  20809621.402    -5917234.515 9  -4340391.40147  20809620.889    20809627.4314
  23745575.541    -7814515.870 8  -6074185.56045  23745575.171    23745584.2674
  21326003.210    -3400860.930 9  -2641362.05047  21326002.906    21326009.2294
  22708630.043   -10606770.657 8  -8240236.60046  22708629.563    22708635.6524
 99  9 14 17 12 30.0000000  0  8 17 08 29 23 21 09 03 31
  22122946.633     7015115.745 8   5460885.19846  22122945.983    22122954.1284
  24247585.178    -4884034.288 7  -3561307.00145  24247584.488    24247595.7854
  21327816.975   -13265303.379 9 -10317101.67547  21327816.929    21327823.4924
  21457240.089     3987526.274 9   3062600.96747  21457239.542    21457246.2184
  20805373.173    -5939559.271 9  -4357787.32047  20805372.670    20805379.1984
  23740542.726    -7840963.005 8  -6094793.59945  23740542.334    23740551.4394
  21329400.947    -3383005.913 9  -2627449.06847  21329400.643    21329406.9844
  22698523.287   -10659882.872 8  -8281622.72446  22698522.670    22698528.7724
 99  9 14 17 13  0.0000000  0  8 17 08 29 23 21 09 03 31
  22137603.415     7092137.474 8   5520902.04846  22137602.817    22137610.9514
  24231546.762    -4968315.847 8  -3626980.90145  24231546.109    24231557.4444
  21313963.649   -13338103.211 9 -10373828.78347  21313963.610    21313970.1584
  21466441.707     4035880.277 9   3100279.38447  21466441.092    21466447.7254
  20801166.352    -5961666.209 9  -4375013.51447  20801165.863    20801172.4124
  23735607.469    -7866897.544 8  -6115002.25845  23735606.982    23735616.2114
  21332905.956    -3364587.522 9  -2613097.10247  21332905.587    21332911.9294
  22688518.536   -10712458.133 8  -8322590.43846  22688517.877    22688524.1214
 99  9 14 17 13 30.0000000  0  8 17 08 29 23 21 09 03 31
  22152312.072     7169431.556 8   5581131.09546  22152311.434    22152319.6944
  24215542.496    -5052419.788 8  -3692516.41045  24215541.739    24215552.9234
  21300182.266   -13410524.953 9 -10430261.27547  21300182.221    21300188.7234
  21475675.076     4084402.141 9   3138088.59847  21475674.510    21475681.1264
  20797000.215    -5983559.453 9  -4392073.18247  20796999.737    20797006.2864
  23730768.946    -7892323.099 8  -6134814.29145  23730768.511    23730777.7784
  21336517.236    -3345610.438 9  -2598309.78547  21336516.857    21336523.1644
  22678612.877   -10764512.560 8  -8363152.31946  22678612.193    22678618.4834
 99  9 14 17 14  0.0000000  0  8 17 08 29 23 21 09 03 31
  22167072.900     7246999.949 8   5641573.91646  22167072.285    22167080.5094
  24199569.945    -5136355.910 8  -3757921.14145  24199569.336    24199580.3634
  21286472.153   -13482572.117 9 -10486401.89047  21286472.072    21286478.5374
  21484938.169     4133079.961 9   3176019.33847  21484937.627    21484944.2784
  20792873.333    -6005246.607 9  -4408972.27147  20792872.864    20792879.3954
  23726026.291    -7917246.137 8  -6154234.76345  23726025.814    23726034.9584
  21340235.502    -3326070.547 9  -2583083.92047  21340235.153    21340241.4974
  22668803.863   -10816059.079 8  -8403318.42146  22668803.244    22668809.5984
 99  9 14 17 14 30.0000000  0  8 17 08 29 23 21 09 03 31
  22181883.579     7324830.120 8   5702220.72046  22181882.872    22181891.1434
  24183627.511    -5220133.947 7  -3823202.70445  24183626.843    24183637.8774
  21272833.649   -13554242.989 9 -10542249.28947  21272833.534    21272840.0094
  21494229.616     4181906.675 9   3214066.10547  21494229.035    21494235.6814
  20788787.782    -6026716.439 9  -4425702.00947  20788787.312    20788793.8114
  23721379.472    -7941664.640 8  -6173262.08145  23721379.091    23721388.2894
  21344062.724    -3305958.044 9  -2567411.86147  21344062.413    21344068.7654
  22659090.466   -10867103.440 8  -8443093.24146  22659089.829    22659096.2134
 99  9 14 17 15  0.0000000  0  8 17 08 29 23 21 09 03 31
  22196744.488     7402924.457 8   5763073.34446  22196743.814    22196752.0934
  24167715.920    -5303750.841 7  -3888358.65045  24167715.179    24167725.9484
  21259267.157   -13625534.830 9 -10597801.34647  21259267.095    21259273.5584
  21503551.415     4230893.322 9   3252237.48247  21503550.872    21503557.5674
  20784749.424    -6047938.310 9  -4442238.53647  20784748.928    20784755.4074
  23716829.264    -7965575.937 8  -6191894.16945  23716828.981    23716837.9324
  21348000.976    -3285262.523 9  -2551285.51247  21348000.667    21348007.0324
  22649471.911   -10917649.189 8  -8482479.53846  22649471.347    22649477.7534
 99  9 14 17 15 30.0000000  0  8 17 08 29 23 21 09 03 31
  22211663.741     7481324.738 8   5824164.37846  22211663.016    22211671.3114
  24151837.635    -5387190.329 7  -3953376.40945  24151837.081    24151847.9614
  21245778.241   -13696419.976 9 -10653036.49347  21245778.154    21245784.5364
  21512906.532     4280054.850 9   3290545.13747  21512906.025    21512912.7064
  20780766.428    -6068869.104 9  -4458548.24847  20780765.945    20780772.4114
  23712377.874    -7988967.965 8  -6210121.65645  23712377.493    23712386.5034
  21352055.299    -3263957.072 9  -2534683.87947  21352054.990    21352061.3164
  22639949.558   -10967689.511 8  -8521471.99346  22639949.049    22639955.3654
 99  9 14 17 16  0.0000000  0  8 17 08 29 23 21 09 03 31
  22226646.555     7560060.175 8   5885516.57246  22226645.883    22226654.1844
  24135993.346    -5470451.732 8  -4018255.39545  24135992.860    24136003.9574
  21232371.631   -13766871.932 9 -10707934.09147  21232371.565    21232377.9834
  21522297.965     4329407.238 9   3329001.51247  21522297.464    21522304.2214
  20776842.882    -6089487.572 9  -4474614.59547  20776842.401    20776848.8544
  23708026.107    -8011837.315 8  -6227941.84645  23708025.596    23708034.5534
  21356227.485    -3242031.902 9  -2517599.35747  21356227.181    21356233.5614
  22630529.246   -11017193.605 8  -8560046.61046  22630528.691    22630535.0154
 99  9 14 17 16 30.0000000  0  8 17 08 29 23 21 09 03 31
  22241696.915     7639149.917 8   5947144.85746  22241696.254    22241704.5534
  24120188.518    -5553507.186 8  -4082973.94245  24120187.981    24120198.7644
  21219051.311   -13836870.728 9 -10762478.57047  21219051.217    21219057.5904
  21531728.793     4378966.311 9   3367618.94647  21531728.265    21531735.0254
  20772981.168    -6109781.016 9  -4490427.66847  20772980.685    20772987.1744
  23703775.792    -8034172.742 8  -6245345.96945  23703775.228    23703784.2294
  21360518.946    -3219480.538 9  -2500026.88847  21360518.660    21360525.0194
  22621214.302   -11066143.941 8  -8598189.72846  22621213.780    22621220.0154
 99  9 14 17 17  0.0000000  0  8 17 08 29 23 21 09 03 31
  22256817.639     7718609.428 8   6009061.25346  22256816.976    22256825.3104
  24104425.313    -5636342.933 7  -4147521.26745  24104424.635    24104435.6464
  21205819.548   -13906403.708 9 -10816660.08347  21205819.487    21205825.8834
  21541199.972     4428737.440 9   3406401.61147  21541199.458    21541206.1734
  20769180.452    -6129753.895 9  -4505990.95647  20769179.946    20769186.4454
  23699627.676    -8055970.843 8  -6262331.44145  23699627.129    23699636.0154
  21364925.860    -3196322.191 8  -2481981.45247  21364925.530    21364931.9344
  22612008.544   -11114520.954 8  -8635886.10546  22612007.943    22612014.1164
 99  9 14 17 17 30.0000000  0  8 17 08 29 23 21 09 03 31
  22272007.956     7798435.010 8   6071262.91046  22272007.310    22272015.6644
  24088705.026    -5718953.178 7  -4211892.87145  24088704.467    24088715.1854
  21192675.994   -13975473.508 9 -10870480.66847  21192675.896    21192682.3354
  21550711.763     4478721.792 9   3445350.43247  21550711.193    21550717.9094
  20765437.159    -6149425.130 9  -4521319.19147  20765436.647    20765443.1284
  23695584.197    -8077219.098 8  -6278888.41845  23695583.679    23695592.5514
  21369444.330    -3172577.559 9  -2463479.16447  21369444.022    21369450.4534
  22602914.623   -11162310.599 8  -8673124.78746  22602913.948    22602920.0184
 99  9 14 17 18  0.0000000  0  8 17 08 29 23 21 09 03 31
  22287264.551     7878607.815 8   6133735.13446  22287263.898    22287272.2454
  24073028.234    -5801335.196 7  -4276086.61845  24073027.600    24073038.2344
  21179618.125   -14044092.543 9 -10923950.01947  21179618.066    21179624.4914
  21560261.927     4528908.217 9   3484456.70447  21560261.352    21560268.1024
  20761746.045    -6168821.919 9  -4536433.58247  20761745.563    20761752.0054
  23691648.370    -8097901.906 8  -6295004.84545  23691647.953    23691656.6694
  21374070.679    -3148266.083 9  -2444535.18647  21374070.379    21374076.7974
  22593930.562   -11209521.548 8  -8709912.53946  22593929.918    22593936.0104
 99  9 14 17 18 30.0000000  0  8 17 08 29 23 21 09 03 31
  22302580.719     7959094.026 8   6196451.55946  22302579.995    22302588.4104
  24057395.269    -5883487.402 7  -4340101.33545  24057394.642    24057404.9994
  21166643.125   -14112276.465 9 -10977080.31947  21166643.088    21166649.4884
  21569846.519     4579275.626 9   3523704.00747  21569845.936    21569852.7154
  20758103.986    -6187961.200 9  -4551347.31147  20758103.454    20758109.9184
  23687820.848    -8118015.051 8  -6310677.33245  23687820.433    23687829.1424
  21378801.799    -3123403.825 9  -2425162.02947  21378801.524    21378807.9714
  22585053.005   -11256173.216 8  -8746264.49946  22585052.384    22585058.4274
 99  9 14 17 19  0.0000000  0  8 17 08 29 23 21 09 03 31
  22317950.780     8039864.116 8   6259389.19046  22317950.064    22317958.4834
  24041805.131    -5965413.681 7  -4403939.95945  24041804.446    24041814.8674
  21153749.173   -14180034.373 9 -11029878.65047  21153749.154    21153755.5224
  21579463.994     4629815.567 9   3563085.75447  21579463.448    21579470.2124
  20754509.562    -6206849.666 9  -4566065.59947  20754509.062    20754515.5404
  23684100.829    -8137562.920 8  -6325909.35245  23684100.369    23684109.1724
  21383637.357    -3097993.236 9  -2405361.58947  21383637.046    21383643.5084
  22576279.936   -11302275.857 8  -8782188.62646  22576279.227    22576285.3554
 99  9 14 17 19 30.0000000  0  8 17 08 29 23 21 09 03 31
  22333371.721     8120900.823 8   6322534.58146  22333371.029    22333379.4674
  24026258.917    -6047109.719 7  -4467599.19045  24026258.218    24026268.4984
  21140935.990   -14247368.109 9 -11082346.46347  21140935.965    21140942.2824
  21589112.406     4680518.107 9   3602594.19847  21589111.799    21589118.5944
  20750961.286    -6225496.104 9  -4580595.29047  20750960.789    20750967.2684
  23680488.571    -8156545.156 8  -6340700.61445  23680488.109    23680496.7674
  21388581.673    -3072010.565 9  -2385115.38147  21388581.383    21388587.8414
  22567606.821   -11347853.548 8  -8817703.70246  22567606.062    22567612.1704
 99  9 14 17 20  0.0000000  0  8 17 08 29 23 21 09 03 31
  22348840.793     8202191.389 8   6385877.78346  22348840.150    22348848.6624
  24010756.005    -6128577.068 7  -4531080.22945  24010755.421    24010765.8534
  21128204.940   -14314270.297 9 -11134478.00947  21128204.878    21128211.2024
  21598789.180     4731370.400 9   3642219.32647  21598788.660    21598795.5094
  20747458.445    -6243903.512 9  -4594938.73747  20747457.974    20747464.4474
  23676980.728    -8174978.974 8  -6355064.55245  23676980.139    23676988.8514
  21393638.169    -3045438.954 9  -2364410.25647  21393637.863    21393644.2974
  22559032.684   -11392911.084 8  -8852813.46646  22559031.868    22559038.0904
 99  9 14 17 20 30.0000000  0  8 17 08 29 23 21 09 03 31
  22364357.119     8283729.651 8   6449413.97846  22364356.418    22364364.9544
  23995297.504    -6209811.717 7  -4594379.94745  23995296.921    23995307.5054
  21115557.289   -14380734.124 9 -11186267.97547  21115557.194    21115563.4764
  21608495.447     4782377.308 9   3681964.93447  21608494.950    21608501.8284
  20744000.557    -6262075.097 9  -4609098.42147  20744000.057    20744006.5024
  23673571.485    -8192893.593 8  -6369023.92545  23673571.007    23673579.7954
  21398807.193    -3018275.803 9  -2343244.19547  21398806.864    21398813.2454
  22550559.766   -11437436.102 8  -8887508.28046  22550559.013    22550565.2854
 99  9 14 17 21  0.0000000  0  8 17 08 29 23 21 09 03 31
  22379922.220     8365524.582 8   6513150.20646  22379921.552    22379930.1754
  23979882.106    -6290820.601 7  -4657503.66245  23979881.404    23979892.1894
  21102992.154   -14446763.985 9 -11237719.77847  21102992.122    21102998.3734
  21618232.378     4833544.344 9   3721835.32847  21618231.809    21618238.5684
  20740587.015    -6280013.145 9  -4623076.12147  20740586.551    20740592.9834
  23670259.658    -8210297.609 8  -6382585.41045  23670259.101    23670267.8054
  21404089.725    -2990516.075 9  -2321613.25247  21404089.377    21404095.7454
  22542188.997   -11481424.573 8  -8921784.99346  22542188.288    22542194.6214
 99  9 14 17 21 30.0000000  0  8 17 08 29 23 21 09 03 31
  22395538.085     8447585.857 8   6577093.96446  22395537.372    22395546.0944
  23964507.375    -6371615.230 8  -4720460.48445  23964506.837    23964517.5934
  21090509.331   -14512361.833 9 -11288834.95147  21090509.245    21090515.5244
  21627998.979     4884868.008 9   3761827.76647  21627998.418    21628005.1584
  20737218.979    -6297712.788 9  -4636868.05447  20737218.462    20737224.8584
  23667045.978    -8227184.697 8  -6395744.09445  23667045.635    23667054.4184
  21409484.684    -2962165.311 9  -2299521.77247  21409484.382    21409490.7024
  22533922.922   -11524862.589 8  -8955632.79646  22533922.310    22533928.7164
 99  9 14 17 22  0.0000000  0  8 17 08 29 23 21 09 03 31
  22411205.029     8529915.442 8   6641246.77346  22411204.246    22411213.0844
  23949174.288    -6452192.538 8  -4783247.94845  23949173.612    23949184.3934
  21078106.722   -14577537.648 9 -11339621.25747  21078106.631    21078112.9704
  21637796.468     4936353.798 9   3801946.54447  21637795.866    21637802.6234
  20733897.014    -6315170.079 9  -4650471.13947  20733896.492    20733902.8854
  23663930.771    -8243554.716 8  -6408499.88445  23663930.442    23663939.0044
  21414988.218    -2933244.356 9  -2276985.98747  21414987.922    21414994.2124
  22525764.707   -11567734.568 8  -8989039.52746  22525764.068    22525770.5464
 99  9 14 17 22 30.0000000  0  8 17 08 29 23 21 09 03 31
  22426924.865     8612524.045 8   6705617.00646  22426924.163    22426933.1324
  23933883.196    -6532547.381 8  -4845862.04345  23933882.557    23933893.2774
  21065782.718   -14642300.377 9 -11390085.69547  21065782.672    21065789.0774
  21647625.505     4988005.737 9   3842194.77347  21647624.921    21647631.7334
  20730623.322    -6332373.531 9  -4663876.43647  20730622.798    20730629.1874
  23660917.555    -8259388.558 8  -6420837.86745  23660917.337    23660926.0414
  21420596.855    -2903770.911 9  -2254019.69647  21420596.529    21420602.8664
  22517713.923   -11610041.740 8  -9022006.15646  22517713.292    22517719.8024
 99  9 14 17 23  0.0000000  0  8 17 08 29 23 21 09 03 31
  22442700.965     8695427.331 8   6770216.86746  22442700.242    22442709.1534
  23918634.706    -6612678.784 8  -4908302.00345  23918634.034    23918644.8684
  21053536.305   -14706655.797 9 -11440232.74147  21053536.220    21053542.6074
  21657488.264     5039834.634 9   3882580.89947  21657487.663    21657494.4414
  20727400.183    -6349311.219 9  -4677074.63547  20727399.650    20727406.0654
  23658010.733    -8274663.378 8  -6432740.24645  23658010.501    23658019.4034
  21426311.106    -2873742.637 9  -2230621.06947  21426310.754    21426317.0824
  22509768.648   -11651794.025 8  -9054540.39446  22509768.052    22509774.6274
 99  9 14 17 23 30.0000000  0  8 17 08 29 23 21 09 03 31
  22458535.168     8778636.355 8   6835054.97046  22458534.421    22458543.2924
  23903433.920    -6692559.664 8  -4970546.75845  23903433.258    23903443.9724
  21041369.206   -14770594.487 9 -11490055.07447  21041369.133    21041375.4644
  21667385.556     5091845.039 8   3923108.45447  21667384.962    21667391.7464
  20724228.994    -6365975.856 9  -4690060.07547  20724228.495    20724234.9044
  23655212.832    -8289366.137 8  -6444196.88245  23655212.707    23655221.4894
  21432132.647    -2843150.422 9  -2206783.01547  21432132.273    21432138.6284
  22501928.901   -11692991.915 8  -9086642.64546  22501928.329    22501934.8694
 99  9 14 17 24  0.0000000  0  8 17 08 29 23 21 09 03 31
  22474429.307     8862160.804 8   6900138.84546  22474428.657    22474437.6374
  23888283.544    -6772175.236 8  -5032584.78045  23888282.896    23888293.5414
  21029283.044   -14834107.588 9 -11539545.76947  21029282.980    21029289.3354
  21677318.007     5144040.753 9   3963780.41147  21677317.485    21677324.2974
  20721109.371    -6382369.295 9  -4702834.18347  20721108.915    20721115.3234
  23652521.557    -8303508.821 8  -6455217.10645  23652521.301    23652530.4134
  21438060.977    -2811996.390 8  -2182507.17847  21438060.679    21438067.0634
  22494193.490   -11733641.915 8  -9118317.97046  22494192.964    22494199.3964
 99  9 14 17 24 30.0000000  0  8 17 08 29 23 21 09 03 31
  22490385.141     8946009.349 8   6965475.25846  22490384.491    22490393.6254
  23873183.094    -6851527.804 8  -5094417.84345  23873182.401    23873193.1684
  21017281.860   -14897174.138 9 -11588688.50547  21017281.779    21017288.1074
  21687284.273     5196413.408 9   4004590.24047  21687283.726    21687290.5294
  20718044.146    -6398477.028 9  -4715385.66347  20718043.667    20718050.1034
  23649937.403    -8317087.438 8  -6465797.76845  23649937.309    23649946.1984
  21444097.900    -2780272.484 9  -2157787.28447  21444097.560    21444103.9624
  22486562.917   -11773741.320 8  -9149564.23946  22486562.337    22486568.6704
 99  9 14 17 25  0.0000000  0  8 17 08 29 23 21 09 03 31
  22506403.704     9030186.704 8   7031067.89146  22506403.071    22506412.1404
  23858132.542    -6930618.129 8  -5156046.56745  23858131.859    23858142.6924
  21005368.320   -14959780.172 9 -11637472.40047  21005368.236    21005374.5714
  21697284.067     5248962.094 9   4045537.23947  21697283.473    21697290.2654
  20715033.545    -6414298.202 9  -4727713.85347  20715033.041    20715039.4474
  23647461.262    -8330099.238 8  -6475936.76345  23647461.223    23647469.9534
  21450245.207    -2747968.225 9  -2132615.15947  21450244.875    21450251.2854
  22479039.765   -11813275.830 8  -9180370.35546  22479039.225    22479045.4564
 99  9 14 17 25 30.0000000  0  8 17 08 29 23 21 09 03 31
  22522481.869     9114677.351 8   7096904.64346  22522481.240    22522490.3484
  23843131.691    -7009447.585 8  -5217471.99145  23843130.964    23843141.8504
  20993544.788   -15021913.087 9 -11685887.62947  20993544.691    20993551.0364
  21707312.607     5301662.464 9   4086602.43447  21707312.011    21707318.8424
  20712075.262    -6429844.389 9  -4739827.76747  20712074.719    20712081.0834
  23645093.855    -8342539.772 8  -6485630.65045  23645093.882    23645102.4744
  21456500.738    -2715095.104 9  -2106999.77247  21456500.444    21456506.8524
  22471626.794   -11852230.558 8  -9210724.68446  22471626.377    22471632.6334
 99  9 14 17 26  0.0000000  0  8 17 08 29 23 21 09 03 31
  22538617.498     9199469.767 8   7162976.55446  22538616.820    22538625.8704
  23828176.601    -7088036.024 8  -5278709.64345  23828176.047    23828186.8254
  20981812.302   -15083567.980 9 -11733930.37547  20981812.184    20981818.4754
  21717366.747     5354497.519 8   4127772.57847  21717366.220    21717373.1024
  20709168.457    -6445119.387 9  -4751730.36147  20709167.961    20709174.3624
  23642835.551    -8354406.721 8  -6494877.57345  23642835.556    23642844.1884
  21462861.842    -2681667.430 9  -2080952.26547  21462861.500    21462867.9594
  22464324.728   -11890602.620 8  -9240625.00346  22464324.382    22464330.6354
 99  9 14 17 26 30.0000000  0  8 17 08 29 23 21 09 03 31
  22554808.110     9284551.169 8   7229273.62346  22554807.391    22554816.3974
  23813267.893    -7166382.291 7  -5339758.53745  23813267.100    23813277.8854
  20970170.076   -15144747.928 9 -11781603.03847  20970170.013    20970176.2904
  21727446.860     5407468.827 8   4169048.89047  21727446.332    21727453.2174
  20706310.879    -6460136.135 9  -4763431.73147  20706310.400    20706316.8094
  23640688.747    -8365687.975 8  -6503668.08945  23640688.742    23640697.3354
  21469327.860    -2647688.343 9  -2054475.09347  21469327.544    21469334.0134
  22457132.825   -11928396.837 8  -9270075.03046  22457132.351    22457138.6564
 99  9 14 17 27  0.0000000  0  8 17 08 29 23 21 09 03 31
  22571053.339     9369920.259 8   7295794.87346  22571052.665    22571061.7814
  23798407.578    -7244472.591 8  -5400608.00445  23798406.985    23798417.8274
  20958616.126   -15205464.409 9 -11828914.55847  20958616.032    20958622.3084
  21737554.080     5460582.399 8   4210436.05547  21737553.535    21737560.4444
  20703497.325    -6474921.492 9  -4774952.79647  20703496.807    20703503.2434
  23638651.005    -8376396.660 8  -6512012.44845  23638650.942    23638659.3794
  21475898.191    -2613161.464 9  -2027571.05947  21475897.825    21475904.3214
  22450049.265   -11965621.414 8  -9299081.19946  22450048.745    22450055.0494
 99  9 14 17 27 30.0000000  0  8 17 08 29 23 21 09 03 31
  22587350.697     9455563.107 8   7362529.44646  22587350.072    22587359.0854
  23783597.930    -7322297.635 8  -5461250.74645  23783597.279    23783608.0744
  20947148.707   -15265726.206 9 -11875871.77347  20947148.601    20947154.8644
  21747687.028     5513831.289 9   4251928.67147  21747686.490    21747693.4164
  20700724.182    -6489494.248 9  -4786308.18647  20700723.697    20700730.1684
  23636716.524    -8386562.736 8  -6519934.03345  23636716.402    23636724.6814
  21482572.466    -2578088.166 9  -2000241.23947  21482572.105    21482578.5264
  22443071.067   -12002292.510 8  -9327656.05746  22443070.486    22443076.7774
 99  9 14 17 28  0.0000000  0  8 17 08 29 23 21 09 03 31
  22603700.291     9541479.832 8   7429477.43146  22603699.644    22603708.4644
  23768839.632    -7399852.720 8  -5521683.15445  23768838.976    23768849.7554
  20935766.139   -15325541.394 9 -11922480.98947  20935766.111    20935772.3854
  21757846.692     5567220.391 8   4293530.52547  21757846.106    21757853.0324
  20697991.553    -6503854.294 9  -4797497.84147  20697991.069    20697997.5464
  23634881.482    -8396206.183 8  -6527448.33545  23634881.292    23634889.6734
  21489349.963    -2542471.755 9  -1972488.23547  21489349.722    21489356.1604
  22436198.153   -12038410.476 8  -9355799.93146  22436197.514    22436203.7824
 99  9 14 17 28 30.0000000  0  8 17 08 29 23 21 09 03 31
  22620102.522     9627673.676 8   7496641.34946  22620101.869    22620110.7174
  23754134.198    -7477129.756 8  -5581898.89845  23754133.556    23754144.2724
  20924467.559   -15384915.781 9 -11968746.71047  20924467.493    20924473.7904
  21768035.391     5620762.237 9   4335251.42847  21768034.823    21768041.6984
  20695297.563    -6518011.768 9  -4808529.63547  20695297.034    20695303.4874
  23633143.716    -8405338.852 8  -6534564.62845  23633143.385    23633151.6564
  21496230.372    -2506315.959 9  -1944314.91647  21496230.020    21496236.4644
  22429430.448   -12073975.058 8  -9383512.57146  22429429.799    22429436.1004
 99  9 14 17 29  0.0000000  0  8 17 08 29 23 21 09 03 31
  22636555.902     9714135.724 8   7564014.24646  22636555.239    22636564.0124
  23739480.180    -7554136.736 8  -5641904.19445  23739479.541    23739490.2634
  20913252.388   -15443851.820 9 -12014670.87247  20913252.337    20913258.5814
  21778249.524     5674437.671 8   4377076.40847  21778248.952    21778255.7884
  20692644.719    -6531952.697 9  -4819392.69747  20692644.181    20692650.6294
  23631502.974    -8413961.440 8  -6541283.47645  23631502.601    23631510.8284
  21503214.555    -2469613.720 9  -1915715.80647  21503214.254    21503220.6784
  22422767.689   -12108987.701 8  -9410795.15546  22422767.071    22422773.4244
 99  9 14 17 29 30.0000000  0  8 17 08 29 23 21 09 03 31
  22653056.272     9800845.255 8   7631579.99746  22653055.625    22653064.3904
  23724876.932    -7630877.097 8  -5701701.75545  23724876.340    23724886.8674
  20902122.271   -15502340.777 9 -12060246.65047  20902122.192    20902128.4434
  21788489.822     5728250.638 8   4419008.56047  21788489.233    21788496.0944
  20690038.951    -6545645.975 9  -4830062.78247  20690038.454    20690044.8774
  23629964.498    -8422045.544 8  -6547582.70845  23629964.177    23629972.4474
  21510303.141    -2432363.018 9  -1886689.31047  21510302.867    21510309.2524
  22416211.566   -12143440.591 8  -9437641.55446  22416210.940    22416217.3274
 99  9 14 17 30  0.0000000  0  8 17 08 29 23 21 09 03 31
  22669606.570     9887816.581 8   7699349.74146  22669605.829    22669614.5554
  23710326.150    -7707340.850 7  -5761283.73945  23710325.484    23710336.2064
  20891079.246   -15560372.139 9 -12105465.86547  20891079.167    20891085.4014
  21798759.485     5782218.186 8   4461061.16447  21798758.923    21798765.8584
  20687485.114    -6559066.660 9  -4840520.45947  20687484.592    20687491.0084
  23628536.750    -8429549.128 8  -6553429.60245  23628536.305    23628544.6064
  21517494.737    -2394570.691 9  -1857240.78847  21517494.508    21517500.9454
  22409764.118   -12177321.582 8  -9464042.32146  22409763.554    22409769.9534
 99  9 14 17 30 30.0000000  0  8 17 08 29 23 21 09 03 31
  22686208.464     9975060.482 8   7767331.87946  22686207.815    22686216.5424
  23695831.412    -7783510.599 8  -5820636.65245  23695830.798    23695841.2414
  20880124.648   -15617939.151 9 -12150323.24947  20880124.551    20880130.7414
  21809061.690     5836356.843 8   4503247.10147  21809061.151    21809068.1594
  20684987.471    -6572191.943 9  -4850747.95447  20684986.942    20684993.3614
  23627223.783    -8436448.686 8  -6558805.79445  23627223.353    23627231.6904
  21524793.059    -2356218.117 8  -1827355.69247  21524792.806    21524799.2234
  22403424.687   -12210635.471 8  -9490001.18446  22403424.122    22403430.4404
 99  9 14 17 31  0.0000000  0  8 17 08 29 23 21 09 03 31
  22702862.670    10062577.749 8   7835527.03546  22702861.945    22702870.6584
  23681397.047    -7859363.674 8  -5879742.80845  23681396.441    23681406.7134
  20869260.515   -15675030.397 9 -12194809.90847  20869260.441    20869266.6164
  21819398.193     5890675.147 8   4545573.02947  21819397.605    21819404.6004
  20682549.461    -6585003.270 9  -4860730.80547  20682548.969    20682555.4494
  23626028.597    -8442728.852 8  -6563699.35045  23626028.162    23626036.4354
  21532200.343    -2317292.684 9  -1797024.22647  21532200.068    21532206.5494
  22397195.453   -12243370.204 8  -9515508.76546  22397194.954    22397201.1794
 99  9 14 17 31 30.0000000  0  8 17 08 29 23 21 09 03 31
  22719573.661    10150394.573 8   7903955.60146  22719573.096    22719581.8474
  23667025.355    -7934887.519 7  -5938592.38745  23667024.551    23667034.8364
  20858486.685   -15731647.524 9 -12238927.11647  20858486.570    20858492.7424
  21829772.946     5945194.833 9   4588055.86947  21829772.373    21829779.3924
  20680170.125    -6597506.714 9  -4870473.74747  20680169.637    20680176.0894
  23624951.137    -8448389.714 8  -6568110.33045  23624950.797    23624959.1514
  21539714.438    -2277805.954 9  -1766255.38047  21539714.146    21539720.6744
  22391078.808   -12275513.957 8  -9540555.83846  22391078.279    22391084.4804
 99  9 14 17 32  0.0000000  0  8 17 08 29 23 21 09 03 31
  22736346.258    10238534.838 8   7972636.20846  22736345.595    22736354.4254
  23652715.180    -8010087.257 8  -5997189.42345  23652714.506    23652724.8114
  20847802.032   -15787795.544 9 -12282678.80647  20847801.937    20847808.0464
  21840184.446     5999907.226 8   4630688.86747  21840183.865    21840190.7944
  20677846.587    -6609717.444 9  -4879988.60947  20677846.055    20677852.4534
  23623986.536    -8453458.352 8  -6572059.86645  23623986.156    23623994.5834
  21547335.015    -2237760.029 8  -1735050.80347  21547334.701    21547341.1984
  22385076.102   -12307058.705 8  -9565136.16746  22385075.515    22385081.6824
 99  9 14 17 32 30.0000000  0  8 17 08 29 23 21 09 03 31
  22753176.868    10326980.667 8   8041554.90246  22753176.263    22753185.2314
  23638463.617    -8084980.685 8  -6055547.80545  23638462.793    23638472.9364
  20837204.219   -15843487.182 9 -12326074.85247  20837204.134    20837210.2974
  21850630.731     6054802.616 8   4673464.46647  21850630.173    21850637.0924
  20675575.326    -6621652.832 9  -4889288.90647  20675574.808    20675581.2324
  23623129.057    -8457963.233 8  -6575570.09345  23623128.738    23623137.3234
  21555063.620    -2197145.657 9  -1703403.27947  21555063.320    21555069.8794
  22379186.868   -12338006.913 8  -9589251.65046  22379186.292    22379192.4804
 99  9 14 17 33  0.0000000  0  8 17 08 29 23 21 09 03 31
  22770063.504    10415719.954 8   8110702.27946  22770062.914    22770071.8964
  23624266.271    -8159587.138 8  -6113682.55445  23624265.482    23624275.4334
  20826692.641   -15898725.621 9 -12369117.75747  20826692.551    20826698.7734
  21861109.978     6109871.367 8   4716375.15047  21861109.359    21861116.3204
  20673352.750    -6633332.724 9  -4898390.12647  20673352.226    20673358.5974
  23622376.258    -8461918.889 8  -6578652.34545  23622375.940    23622384.4784
  21562898.527    -2155973.260 8  -1671320.92847  21562898.176    21562904.7364
  22373412.482   -12368351.022 8  -9612896.42346  22373411.949    22373418.1124
 99  9 14 17 33 30.0000000  0  8 17 08 29 23 21 09 03 31
  22787004.115    10504743.296 8   8180070.97946  22787003.525    22787012.5794
  23610119.612    -8233926.133 7  -6171608.86645  23610118.776    23610129.1004
  20816267.413   -15953510.929 9 -12411807.59047  20816267.338    20816273.4734
  21871617.975     6165091.139 8   4759403.51447  21871617.374    21871624.3274
  20671176.609    -6644768.782 9  -4907301.34847  20671176.053    20671182.3734
  23621726.156    -8465334.751 8  -6581313.98745  23621725.790    23621734.4524
  21570836.359    -2114259.724 8  -1638816.92047  21570836.041    21570842.6144
  22367753.459   -12398089.223 8  -9636069.04546  22367752.987    22367759.0874
 99  9 14 17 34  0.0000000  0  8 17 08 29 23 21 09 03 31
  22803992.041    10594014.742 8   8249633.02746  22803991.355    22804000.4984
  23596025.604    -8307989.573 8  -6229320.48145  23596024.892    23596035.0814
  20805928.959   -16007839.748 9 -12454141.69347  20805928.855    20805935.0144
  21882151.072     6220442.566 8   4802534.46947  21882150.452    21882157.4054
  20669044.084    -6655974.770 9  -4916033.27847  20669043.589    20669049.9464
  23621179.248    -8468208.172 8  -6583552.92845  23621178.908    23621187.4454
  21578876.910    -2072006.644 8  -1605892.47947  21578876.604    21578883.1854
  22362208.593   -12427227.588 8  -9658774.26346  22362208.095    22362214.3004
 99  9 14 17 34 30.0000000  0  8 17 08 29 23 21 09 03 31
  22821023.963    10683518.287 8   8319375.92346  22821023.344    22821032.5234
  23581987.436    -8381759.757 8  -6286803.62245  23581986.840    23581996.8894
  20795678.744   -16061704.602 9 -12496114.28047  20795678.651    20795684.7934
  21892707.697     6275917.808 8   4845761.90647  21892707.064    21892714.0464
  20666955.223    -6666951.765 9  -4924586.77947  20666954.715    20666961.0874
  23620738.318    -8470524.852 8  -6585358.07145  23620738.023    23620746.5624
  21587017.296    -2029228.619 8  -1572558.99247  21587016.969    21587023.5494
  22356773.755   -12455787.870 8  -9681029.02946  22356773.208    22356779.4634
 99  9 14 17 35  0.0000000  0  8 17 08 29 23 21 09 03 31
  22838102.802    10773268.860 8   8389311.30046  22838102.350    22838111.6674
  23568009.639    -8455213.653 8  -6344040.28645  23568008.987    23568018.9674
  20785522.425   -16115076.211 9 -12537702.52347  20785522.352    20785528.4924
  21903286.167     6331507.713 8   4889078.68547  21903285.541    21903292.4884
  20664912.257    -6677687.532 9  -4932952.31847  20664911.759    20664918.1414
  23620406.504    -8472268.913 8  -6586717.01245  23620406.183    23620414.6764
  21595254.550    -1985942.013 8  -1538829.21547  21595254.167    21595260.7504
  22351449.211   -12483768.012 8  -9702831.74946  22351448.675    22351455.0044
 99  9 14 17 35 30.0000000  0  8 17 08 29 23 21 09 03 31
  22855231.037    10863277.437 8   8459447.71246  22855230.492    22855239.8764
  23554098.008    -8528319.175 8  -6401005.48045  23554097.318    23554107.5274
  20775463.697   -16167934.891 9 -12578891.07247  20775463.646    20775469.7924
  21913887.075     6387215.662 8   4932487.45647  21913886.392    21913893.3134
  20662916.414    -6688175.869 9  -4941125.04847  20662915.901    20662922.3064
  23620187.542    -8473418.911 8  -6587613.03845  23620187.404    23620195.8434
  21603589.836    -1942139.913 8  -1504697.75247  21603589.486    21603596.0474
  22346232.935   -12511179.609 8  -9724191.42646  22346232.435    22346238.7694
 99  9 14 17 36  0.0000000  0  8 17 08 29 23 21 09 03 31
  22872411.598    10953560.946 8   8529798.37746  22872410.900    22872420.4744
  23540255.111    -8601063.938 8  -6457689.55845  23540254.371    23540264.6274
  20765503.377   -16220276.687 9 -12619676.84847  20765503.281    20765509.4284
  21924513.216     6443056.844 8   4976000.04147  21924512.646    21924519.5894
  20660969.559    -6698406.813 9  -4949097.21147  20660969.039    20660975.4634
  23620082.307    -8473971.961 8  -6588043.94845  23620082.127    23620090.5184
  21612024.931    -1897813.072 8  -1470157.39047  21612024.627    21612031.2244
  22341122.802   -12538033.947 8  -9745116.87746  22341122.253    22341128.5814
 99  9 14 17 36 30.0000000  0  8 17 08 29 23 21 09 03 31
  22889649.686    11044147.584 8   8600385.21746  22889648.996    22889658.6644
  23526479.873    -8673452.555 8  -6514096.14645  23526479.128    23526489.2874
  20755644.802   -16272083.644 9 -12660045.87947  20755644.746    20755650.8154
  21935169.532     6499056.188 8   5019635.86647  21935168.978    21935175.9524
  20659075.889    -6708358.448 9  -4956851.73447  20659075.330    20659081.7604
  23620091.243    -8473925.228 8  -6588007.46945  23620091.101    23620099.3574
  21620561.900    -1852951.333 8  -1435200.23247  21620561.527    21620568.1424
  22336121.573   -12564315.835 8  -9765596.27146  22336120.985    22336127.3244
 99  9 14 17 37  0.0000000  0  8 17 08 29 23 21 09 03 31
  22906946.778    11135043.683 8   8671213.23546  22906946.091    22906955.6984
  23512771.738    -8745488.873 8  -6570228.21245  23512771.048    23512781.0854
  20745886.192   -16323366.183 9 -12700006.26947  20745886.102    20745892.0304
  21945858.764     6555228.531 8   5063406.49947  21945858.258    21945865.2354
  20657232.538    -6718044.957 9  -4964399.66247  20657232.016    20657238.4684
  23620215.444    -8473272.128 8  -6587498.49145  23620215.225    23620223.5764
  21629203.208    -1807540.769 8  -1399815.41647  21629202.864    21629209.5064
  22331234.487   -12589998.059 8  -9785608.38846  22331233.859    22331240.1584
 99  9 14 17 37 30.0000000  0  8 17 08 29 23 21 09 03 31
  22924301.155    11226240.087 8   8742275.23046  22924300.436    22924310.0264
  23499128.182    -8817185.424 8  -6626095.52145  23499127.473    23499137.5334
  20736217.995   -16374172.614 9 -12739595.66647  20736217.905    20736223.8524
  21956580.308     6611570.115 8   5107309.00247  21956579.736    21956586.6974
  20655436.140    -6727484.908 9  -4971755.47547  20655435.649    20655442.0964
  23620452.352    -8472028.611 8  -6586529.48745  23620451.952    23620460.2284
  21637947.541    -1761589.186 8  -1364009.03347  21637947.211    21637953.8614
  22326461.036   -12615082.435 8  -9805154.65746  22326460.473    22326466.6904
 99  9 14 17 38  0.0000000  0  8 17 08 29 23 21 09 03 31
  22941708.367    11317715.036 8   8813554.29246  22941707.626    22941717.2144
  23485543.544    -8888573.194 8  -6681722.23145  23485542.787    23485552.8004
  20726634.322   -16424535.075 9 -12778839.11247  20726634.230    20726640.1724
  21967331.537     6668067.891 8   5151333.20847  21967330.943    21967337.8694
  20653684.859    -6736688.116 9  -4978926.81147  20653684.362    20653690.8164
  23620795.237    -8470225.856 8  -6585124.65745  23620794.775    23620803.1864
  21646789.866    -1715122.677 8  -1327801.41147  21646789.519    21646796.1784
  22321803.152   -12639559.917 8  -9824228.02146  22321802.578    22321808.7944
 99  9 14 17 38 30.0000000  0  8 17 08 29 23 21 09 03 31
  22959164.424    11409447.128 8   8885033.70745  22959163.712    22959173.3744
  23472016.247    -8959659.291 8  -6737113.86646  23472015.562    23472025.4784
  20717130.534   -16474477.766 9 -12817755.46047  20717130.449    20717136.3924
  21978110.161     6724709.909 8   5195469.82247  21978109.561    21978116.5124
  20651976.841    -6745663.763 9  -4985920.82047  20651976.335    20651982.7814
  23621245.592    -8467859.214 8  -6583280.49845  23621245.072    23621253.5184
  21655728.398    -1668150.704 8  -1291199.90547  21655728.032    21655734.7394
  22317259.542   -12663436.697 8  -9842833.30646  22317259.023    22317265.2714
 99  9 14 17 39  0.0000000  0  8 17 08 29 23 21 09 03 31
  22976666.682    11501422.069 8   8956702.36445  22976666.084    22976675.7614
  23458547.782    -9030436.447 8  -6792264.78046  23458547.076    23458556.9864
  20707702.711   -16524020.818 9 -12856360.40447  20707702.626    20707708.6104
  21988911.552     6781471.371 8   5239699.50347  21988910.914    21988917.9044
  20650311.091    -6754417.418 9  -4992741.85747  20650310.607    20650317.0174
  23621800.459    -8464942.503 8  -6581007.70045  23621800.078    23621808.5654
  21664760.528    -1620686.733 8  -1254215.03847  21664760.198    21664766.8444
  22312826.649   -12686732.372 8  -9860985.78046  22312826.072    22312832.2284
 99  9 14 17 39 30.0000000  0  8 17 08 29 23 21 09 03 31
  22994213.856    11593632.147 8   9028554.25345  22994213.217    22994222.7804
  23445138.041    -9100903.988 8  -6847174.41646  23445137.350    23445147.3624
  20698354.984   -16573143.221 9 -12894637.56547  20698354.887    20698360.9614
  21999734.877     6838348.212 8   5284019.09447  21999734.251    21999741.2334
  20648692.134    -6762925.238 9  -4999371.33447  20648691.648    20648698.0534
  23622457.604    -8461489.404 8  -6578316.94445  23622457.113    23622465.5624
  21673886.747    -1572728.482 9  -1216845.01647  21673886.401    21673893.0434
  22308500.769   -12709464.724 8  -9878699.29846  22308500.247    22308506.4074
 99  9 14 17 40  0.0000000  0  8 17 08 29 23 21 09 03 31
  23011805.668    11686077.011 8   9100589.09345  23011805.048    23011814.6504
  23431791.476    -9171039.983 8  -6901825.70046  23431790.799    23431800.7394
  20689096.921   -16621794.391 9 -12932547.53747  20689096.836    20689102.9224
  22010583.655     6895359.264 8   5328443.25747  22010583.051    22010590.0284
  20647123.551    -6771168.145 9  -5005794.38347  20647123.054    20647129.4554
  23623221.931    -8457471.689 8  -6575186.20345  23623221.554    23623230.0854
  21683111.747    -1524251.163 8  -1179070.52247  21683111.374    21683118.0484
  22304282.788   -12731630.126 8  -9895971.03846  22304282.317    22304288.4564
 99  9 14 17 40 30.0000000  0  8 17 08 29 23 21 09 03 31
  23029445.972    11778776.510 8   9172822.34145  23029445.367    23029454.9204
  23418514.102    -9240812.761 8  -6956193.97246  23418513.461    23418523.2414
  20679933.823   -16669946.898 9 -12970068.94547  20679933.710    20679939.8164
  22021459.430     6952512.183 8   5372977.95647  22021458.891    22021465.8644
  20645606.921    -6779137.899 9  -5012004.58847  20645606.434    20645612.8804
  23624098.398    -8452866.276 7  -6571597.55345  23624097.957    23624106.5094
  21692438.648    -1475237.856 8  -1140878.38747  21692438.327    21692445.0414
  22300174.716   -12753218.572 8  -9912793.20146  22300174.141    22300180.3164
 99  9 14 17 41  0.0000000  0  8 17 08 29 23 21 09 03 31
  23047135.924    11871737.389 8   9245259.27145  23047135.280    23047144.8024
  23405308.186    -9310209.878 8  -7010269.51246  23405307.563    23405317.4144
  20670869.806   -16717578.841 9 -13007184.71347  20670869.665    20670875.7524
  22032362.701     7009809.173 8   5417624.93747  22032362.183    22032369.1574
  20644141.700    -6786837.968 9  -5018004.64347  20644141.188    20644147.6404
  23625084.059    -8447685.702 8  -6567560.68745  23625083.705    23625092.3264
  21701867.722    -1425688.482 8  -1102268.52647  21701867.340    21701874.0364
  22296178.882   -12774216.102 8  -9929154.91646  22296178.397    22296184.5694
 99  9 14 17 41 30.0000000  0  8 17 08 29 23 21 09 03 31
  23064875.618    11964960.334 8   9317900.38045  23064875.169    23064884.7514
  23392173.840    -9379230.839 8  -7064051.94546  23392173.246    23392182.9944
  20661907.266   -16764677.042 9 -13043884.58247  20661907.129    20661913.2164
  22043294.670     7067256.695 8   5462389.20147  22043294.095    22043301.1114
  20642728.210    -6794265.622 9  -5023792.43047  20642727.747    20642734.2054
  23626183.666    -8441907.813 7  -6563058.42945  23626183.264    23626191.9364
  21711398.535    -1375603.785 8  -1063241.53247  21711398.162    21711404.8344
  22292297.273   -12794613.977 8  -9945049.36746  22292296.804    22292303.0094
 99  9 14 17 42  0.0000000  0  8 17 08 29 23 21 09 03 31
  23082667.530    12058456.623 8   9390754.48245  23082666.932    23082676.6384
  23379113.001    -9447866.045 8  -7117533.78346  23379112.367    23379121.9684
  20653044.001   -16811253.728 9 -13080178.07447  20653043.905    20653049.9014
  22054254.851     7124852.331 8   5507268.88847  22054254.287    22054261.2454
  20641366.964    -6801419.052 9  -5029366.53147  20641366.529    20641372.9874
  23627399.313    -8435518.740 7  -6558079.89645  23627398.922    23627407.7024
  21721027.580    -1325002.827 8  -1023812.25847  21721027.246    21721033.8964
  22288531.686   -12814402.461 8  -9960468.95746  22288531.231    22288537.3064
 99  9 14 17 42 30.0000000  0  8 17 08 29 23 21 09 03 31
  23100511.436    12152226.037 8   9463821.43545  23100510.879    23100520.4504
  23366125.381    -9516115.647 8  -7170715.13346  23366124.749    23366134.3804
  20644278.791   -16857315.212 9 -13116070.11547  20644278.673    20644284.6374
  22065242.721     7182593.839 8   5552262.23547  22065242.160    22065249.1174
  20640059.082    -6808292.038 9  -5034722.10547  20640058.635    20640065.1214
  23628728.404    -8428534.330 7  -6552637.48845  23628727.942    23628736.7454
  21730752.108    -1273900.215 8   -983992.08647  21730751.764    21730758.4744
  22284883.989   -12833571.612 8  -9975405.95746  22284883.496    22284889.5954
 99  9 14 17 43  0.0000000  0  8 17 08 29 23 21 09 03 31
  23118406.106    12246261.966 8   9537096.04545  23118405.491    23118415.1154
  23353212.001    -9583975.223 8  -7223592.57146  23353211.338    23353220.9734
  20635609.998   -16902869.709 9 -13151567.09847  20635609.895    20635615.8434
  22076261.150     7240495.776 8   5597380.59947  22076260.543    22076267.5494
  20638805.162    -6814881.796 9  -5039856.98147  20638804.663    20638811.1034
  23630171.432    -8420950.367 8  -6546727.87245  23630171.063    23630179.8444
  21740571.315    -1222300.149 8   -943784.29147  21740570.986    21740577.6624
  22281353.363   -12852124.727 8  -9989862.93946  22281352.910    22281359.0494
